GFSCGP_2pvu_pres_054.txt.gz
Presure
183 203 200 174 194 205 252 220 236 242 240 222 228 236 247 245 231 236 231 249 221 234 230 219 164 149 137 135 142 143 229 226 124 145 146 124 129 135 137 114 122 130 130 133
190 201 204 177 192 199 222 243 238 239 248 239 226 229 248 243 231 229 227 238 229 193 216 218 222 221 124 218 202 161 182 122 118 118 145 124 126 129 131 129 121 152 165 152
189 186 201 186 185 195 222 271 221 244 237 229 227 226 230 238 241 233 132 151 226 147 138 222 215 216 216 127 212 132 132 136 128 125 126 121 114 166 127 190 190 179 192 193
175 198 175 190 191 203 206 271 230 247 233 230 228 234 234 230 235 240 138 234 224 216 198 224 221 124 209 171 202 125 125 182 146 140 160 121 119 122 140 131 208 210 207 206
177 197 196 190 192 205 218 227 239 219 238 226 228 243 233 225 223 223 227 229 241 219 212 121 119 207 200 167 178 203 119 132 119 123 214 141 135 216 143 195 218 219 211 211
184 196 176 157 190 182 213 218 250 217 227 232 226 227 223 226 231 221 140 151 118 209 227 144 224 210 204 208 122 161 166 146 182 127 161 137 224 226 223 226 222 216 215 217
198 202 190 178 199 183 213 216 268 225 222 237 227 218 216 218 218 219 218 163 145 133 219 220 223 188 127 164 188 123 126 127 132 213 213 215 216 213 216 218 220 216 216 216
196 188 182 178 198 202 176 209 241 245 214 221 236 229 218 216 220 217 210 212 217 213 216 215 215 216 215 214 135 214 213 213 211 214 215 214 216 222 219 218 215 205 204 217
188 200 177 173 175 190 204 206 221 259 225 224 248 232 229 220 217 214 210 213 229 232 219 219 213 214 215 215 214 215 215 213 207 214 222 222 216 210 204 204 227 204 202 203
193 199 197 194 178 183 189 177 216 222 245 232 222 245 226 231 222 216 216 217 225 235 222 219 213 219 222 218 216 216 217 218 215 213 210 205 202 203 202 204 203 198 202 211
189 174 199 159 183 202 203 179 183 214 270 240 223 221 233 231 229 218 212 218 212 211 219 221 221 220 213 213 214 210 208 206 209 207 224 206 205 205 196 196 202 220 202 205
184 196 197 174 191 202 183 200 213 196 227 255 237 234 221 236 228 213 221 218 216 215 219 213 213 214 212 214 210 202 203 206 205 205 206 206 205 203 203 218 195 204 217 215
195 194 201 182 177 182 176 182 205 218 217 230 255 246 240 214 234 209 225 223 219 219 220 216 217 218 210 205 204 203 211 205 204 207 208 211 211 210 205 221 207 212 205 203
194 182 195 178 208 177 194 189 193 209 233 221 236 254 250 232 213 221 210 205 219 215 218 217 205 204 202 203 202 201 202 209 213 210 206 203 205 202 221 212 217 216 199 198
195 194 196 203 182 194 179 208 195 206 226 174 222 260 258 250 235 220 217 215 208 204 205 207 205 202 203 215 201 197 204 211 209 204 202 205 210 215 218 212 211 206 206 199
198 197 196 191 179 177 201 193 204 205 207 222 216 235 267 264 250 243 226 217 207 208 213 210 205 204 203 203 204 210 207 204 203 200 202 205 231 227 222 195 199 200 195 191
189 193 200 195 181 201 176 204 212 203 215 221 227 218 193 243 249 261 245 262 257 244 200 203 209 209 215 218 166 195 196 199 198 198 207 244 231 214 200 198 195 192 189 193
196 193 193 193 182 181 187 214 203 209 210 220 215 213 250 236 226 218 208 200 214 210 217 218 215 212 217 209 206 202 199 198 195 200 223 219 199 196 193 191 186 197 200 203
185 181 201 203 196 178 177 207 194 209 204 198 221 226 216 256 238 223 213 210 202 212 216 211 211 210 212 212 206 203 203 203 204 201 201 201 199 200 202 202 201 206 195 204
207 204 195 183 188 185 202 193 225 206 213 215 206 213 225 219 245 240 224 215 214 210 207 210 210 209 210 209 207 203 203 203 204 206 205 204 205 208 207 204 194 199 202 206
189 195 198 201 207 181 182 180 194 175 217 202 213 209 228 214 209 242 237 227 217 207 204 204 204 208 207 207 208 198 202 204 206 206 205 204 204 204 202 200 201 203 204 205
212 206 197 187 198 176 194 207 188 223 205 211 204 215 189 232 231 215 246 237 230 223 216 213 209 204 203 203 202 203 203 202 202 203 202 203 205 206 210 212 209 216 219 218
204 206 207 188 182 194 200 205 214 222 205 207 212 216 220 230 224 209 225 247 236 234 227 226 224 222 220 219 213 213 213 213 213 213 216 223 221 218 220 222 221 222 223 225
194 204 204 203 206 212 204 190 210 201 200 207 206 212 227 221 221 228 201 235 242 234 227 223 222 225 227 229 230 228 223 223 222 222 221 222 223 222 222 223 217 219 218 224
188 191 205 208 198 204 194 210 208 209 211 209 216 209 215 228 227 224 204 229 235 238 242 234 220 194 209 219 219 214 207 195 203 205 203 200 202 203 221 223 247 237 228 231
203 202 204 198 200 209 208 210 214 209 213 209 214 208 224 223 220 216 216 214 232 230 230 225 234 237 240 227 239 238 232 233 240 239 237 238 240 240 244 244 241 247 261 256

GFSCGP_2pvu_pres_057.txt.gz
Presure
201 198 187 193 200 194 186 200 233 238 230 239 229 217 236 222 226 223 222 237 235 249 226 185 184 229 237 124 204 249 232 224 233 143 140 202 212 205 210 208 203 204 210 194
200 187 194 187 196 194 180 194 215 255 240 255 229 233 229 242 242 228 223 228 227 236 220 152 235 133 208 226 232 235 237 217 207 166 229 189 229 228 209 140 142 134 120 112
193 186 192 186 189 194 176 201 204 259 225 246 242 229 228 235 230 231 224 231 230 219 222 230 215 172 186 221 216 219 182 193 142 173 155 213 213 170 127 127 175 115 117 120
179 186 195 195 193 201 194 183 215 258 233 222 236 231 231 235 232 229 230 235 226 214 222 211 212 212 206 214 213 214 198 126 195 212 138 178 140 133 138 119 130 137 166 199
197 189 189 183 195 187 200 178 196 226 238 217 240 233 235 240 235 232 233 239 213 211 138 216 220 211 218 208 220 217 113 205 213 211 221 154 118 120 130 122 123 204 128 189
192 196 187 187 200 188 166 192 199 217 252 221 241 226 245 237 227 225 225 224 228 232 221 212 191 126 179 181 169 210 125 152 209 204 200 211 136 126 122 171 189 172 219 213
191 187 192 175 190 190 170 186 197 203 231 238 217 227 226 228 224 223 227 219 218 175 167 219 224 215 162 214 126 213 206 209 216 223 219 137 217 230 153 131 220 223 220 217
195 195 180 183 192 181 201 181 178 201 205 238 232 205 232 224 221 222 221 221 216 213 215 219 219 222 162 226 231 229 230 135 133 224 222 143 195 217 215 217 220 225 224 229
202 190 194 170 197 174 170 176 194 202 197 220 247 225 231 232 223 221 219 219 214 215 221 221 215 218 216 215 215 213 214 213 214 213 214 211 210 203 215 221 232 224 213 210
204 182 189 185 191 194 195 185 199 203 207 187 283 245 217 237 239 223 227 217 218 212 215 225 225 217 217 214 214 212 213 216 217 216 215 217 222 228 215 211 204 205 212 209
192 192 186 188 186 186 184 204 193 200 201 209 227 253 250 220 228 223 227 230 221 221 220 223 232 222 217 213 211 217 218 212 213 215 208 221 203 205 205 206 206 202 205 206
209 199 194 176 197 198 189 191 171 177 212 196 238 233 279 256 223 218 225 230 234 221 222 223 214 220 219 215 212 212 211 212 213 212 206 204 207 203 199 202 206 210 207 206
199 178 192 194 193 196 190 176 203 184 204 186 210 238 230 260 254 223 218 225 239 217 217 227 218 217 218 216 214 217 214 210 206 204 204 200 199 204 208 208 206 202 197 206
175 191 188 183 194 182 192 187 187 185 188 182 210 225 215 248 260 260 230 217 217 221 211 210 222 216 218 211 214 209 208 205 206 206 201 204 211 213 207 201 201 203 202 214
198 197 197 182 187 193 186 193 204 187 203 181 202 213 237 220 250 256 249 232 221 215 215 212 206 207 206 207 208 207 205 228 213 206 213 214 204 205 204 201 199 202 214 232
199 199 194 190 186 197 190 194 174 177 172 185 195 212 221 226 215 270 258 249 243 239 212 215 215 218 210 207 203 205 245 205 214 213 213 207 206 204 202 200 200 237 240 199
196 195 180 195 195 191 198 182 188 193 193 170 192 208 206 229 216 250 258 239 250 253 253 255 257 255 196 206 212 206 201 198 206 204 201 198 198 196 197 198 199 198 199 200
190 203 197 174 199 187 175 192 195 195 176 212 190 206 203 215 224 232 230 224 233 222 215 211 212 207 218 211 207 214 209 210 209 209 205 202 201 201 201 201 200 200 199 198
209 206 198 178 200 177 181 193 196 204 179 217 183 199 201 200 217 231 241 219 247 241 230 219 218 214 212 209 213 215 214 210 210 207 208 207 206 206 208 211 211 210 206 204
213 214 209 202 195 197 175 181 199 182 174 228 181 201 209 209 202 208 224 236 211 225 246 237 227 219 214 211 210 207 205 206 205 204 204 205 205 206 208 207 202 201 208 206
215 213 207 192 183 187 184 194 203 181 148 192 168 168 215 200 207 211 208 231 224 221 221 243 239 233 229 224 219 215 212 209 208 209 212 212 210 211 212 211 217 221 220 219
215 211 210 178 199 177 196 189 207 184 197 200 179 205 205 210 196 212 207 210 222 223 215 209 240 238 233 228 225 222 223 225 219 209 213 215 216 216 201 196 201 204 209 212
208 210 203 201 196 191 204 200 185 181 216 183 215 197 205 212 188 209 223 215 225 221 221 216 204 237 232 226 221 222 219 217 217 217 195 217 217 216 212 229 232 230 237 245
214 213 213 212 204 205 167 169 174 168 187 204 198 200 205 205 210 206 217 214 212 226 207 223 218 210 230 239 244 227 231 235 217 219 218 226 228 230 225 225 236 230 275 266
213 213 209 210 206 203 202 198 208 207 204 190 199 198 205 210 213 211 208 216 205 231 221 215 202 221 226 221 228 234 233 230 239 228 231 236 223 216 218 225 225 236 236 235
210 211 215 204 208 192 196 201 202 203 205 199 199 205 204 210 212 210 212 214 222 225 221 217 223 214 217 218 225 236 239 241 228 237 238 231 218 216 230 221 213 238 232 233

GFSCGP_2pvu_pres_060.txt.gz
Presure
198 216 208 202 192 190 191 202 190 186 198 249 237 235 239 234 218 220 228 240 256 221 226 232 234 124 248 169 120 217 127 224 237 214 202 210 206 205 209 213 197 203 205 198
189 222 211 195 193 193 199 199 196 191 198 265 229 238 239 245 206 223 231 223 216 239 257 214 132 230 139 215 221 231 244 158 231 223 204 234 228 223 216 211 215 143 201 178
198 220 212 197 187 193 194 182 186 195 189 247 244 243 235 237 235 237 229 215 212 218 243 221 232 186 236 184 223 234 233 243 251 237 223 213 214 219 209 194 210 154 125 201
195 189 213 182 181 186 179 203 185 187 194 195 257 225 226 234 237 234 234 221 216 218 209 223 230 221 200 213 214 135 171 222 229 232 241 228 227 225 217 144 132 209 136 120
196 182 212 206 185 189 190 197 187 187 190 201 254 232 236 225 240 238 235 228 229 229 212 210 215 207 216 215 217 220 165 216 215 217 213 214 157 207 131 127 130 208 206 122
200 201 217 202 181 190 195 188 177 191 178 193 212 252 222 234 226 239 233 235 232 217 214 213 215 223 211 214 222 213 212 178 210 215 209 209 210 188 209 214 213 215 186 217
226 194 217 198 197 193 186 188 184 191 192 188 197 224 243 225 237 227 233 229 227 240 220 110 218 216 213 207 173 126 123 210 209 212 217 205 204 175 190 206 208 133 206 158
227 198 212 202 188 196 192 195 191 191 174 202 198 198 240 235 240 225 223 232 230 224 214 213 211 217 216 215 222 119 203 222 211 204 203 137 201 212 220 226 225 231 214 144
205 194 206 208 194 183 184 195 191 177 174 180 185 197 292 244 232 236 229 218 222 220 223 218 213 218 218 216 216 223 227 227 230 232 232 227 224 219 221 214 219 207 195 194
202 188 212 205 202 196 181 180 194 191 171 175 184 205 202 273 245 229 243 227 221 221 220 219 221 220 221 225 218 219 221 216 215 217 215 215 212 222 205 214 223 225 222 223
197 195 196 191 202 185 192 178 190 197 190 190 182 202 214 239 251 253 227 230 218 222 226 220 216 223 223 233 231 225 220 218 214 214 227 215 213 205 222 192 189 197 207 207
206 192 214 216 211 199 178 181 183 187 196 169 176 191 171 198 222 252 263 226 237 223 224 226 226 214 219 218 213 222 219 219 215 213 206 215 202 218 187 197 203 206 201 197
191 194 223 213 191 205 170 186 185 192 192 196 189 203 203 183 205 229 260 267 233 228 226 228 226 215 212 216 217 206 212 213 207 208 185 191 180 192 196 201 200 199 205 211
201 224 196 212 203 201 200 184 189 192 190 184 185 176 181 206 201 234 239 259 268 256 230 223 231 220 212 221 223 210 211 207 220 226 195 192 195 203 204 208 198 213 212 203
196 219 232 211 205 189 185 184 194 182 195 184 185 200 210 180 189 214 231 227 264 266 253 244 233 225 228 229 214 212 212 218 223 204 202 204 223 204 205 210 214 211 206 205
212 214 215 205 199 185 184 188 184 189 193 186 191 185 164 202 171 191 222 230 229 262 249 266 261 244 242 244 240 239 233 208 192 265 240 214 208 203 217 216 210 209 210 208
213 216 210 204 204 177 194 186 188 186 196 184 186 178 168 182 182 180 201 209 236 222 256 247 241 242 251 260 217 219 231 199 203 211 215 220 217 213 214 214 216 214 211 209
229 225 222 209 197 203 184 190 190 188 192 193 185 175 190 178 172 190 185 205 211 245 231 233 251 246 214 217 214 215 215 215 211 216 218 216 217 215 211 212 208 205 205 206
238 225 228 207 206 207 195 198 186 192 192 194 179 191 172 175 205 189 191 219 209 206 230 241 221 221 246 245 235 225 220 220 218 213 212 212 206 207 210 208 207 212 218 218
234 225 218 220 204 211 198 191 188 187 184 197 196 193 188 190 203 189 184 179 180 192 220 220 238 236 219 218 250 249 243 236 233 226 223 223 219 217 215 197 219 206 218 222
230 229 219 223 207 190 213 196 180 187 184 179 190 184 175 166 173 197 192 192 211 211 205 226 215 227 227 232 220 215 237 251 243 237 233 226 223 223 222 220 221 220 219 207
231 230 221 222 205 213 194 217 196 195 192 127 199 145 175 188 176 177 175 194 207 212 213 220 216 206 218 224 219 226 220 215 220 242 239 239 230 227 228 230 228 229 231 231
236 181 221 216 213 212 208 214 203 206 199 191 190 187 197 204 199 205 177 197 198 205 213 215 206 197 216 223 223 214 218 216 202 220 221 213 240 238 236 234 233 236 242 238
227 228 221 220 211 210 203 207 214 203 190 199 189 189 203 184 174 203 173 200 198 201 209 214 210 218 217 214 223 220 216 224 221 223 214 222 204 221 240 236 231 216 223 233
227 230 224 217 209 211 215 211 211 205 198 202 207 203 186 194 207 202 198 195 205 202 206 209 212 223 213 217 219 219 221 225 216 211 205 233 222 213 239 232 227 233 239 224
230 222 219 207 209 215 218 212 208 207 203 203 204 210 196 195 194 202 208 198 206 202 206 203 218 216 213 215 217 209 212 220 193 224 227 208 234 198 212 225 229 229 244 221

GFSCGP_2pvu_pres_063.txt.gz
Presure
174 186 207 191 193 188 215 195 195 189 192 190 193 266 266 241 213 212 223 229 222 259 218 234 188 237 214 126 195 125 232 165 205 187 192 184 193 188 193 184 186 181 186 189
187 164 182 184 190 204 220 189 199 202 189 186 190 216 265 253 253 237 235 218 224 234 268 232 226 234 229 238 125 195 125 120 184 194 191 181 181 182 189 190 143 192 195 198
177 187 190 184 205 184 204 178 199 185 198 188 187 199 249 241 257 228 219 214 228 223 229 245 262 239 232 237 186 123 216 248 233 208 203 193 167 196 200 201 185 188 201 205
180 187 193 193 183 184 200 212 198 196 197 178 188 194 204 262 244 235 252 243 243 223 219 240 232 231 234 231 207 247 253 253 239 245 244 246 258 238 237 239 198 194 193 220
177 185 186 188 204 216 188 216 196 196 197 195 188 204 204 254 226 234 251 240 224 226 218 220 207 224 223 231 226 223 233 237 237 239 241 247 246 248 249 242 221 135 212 119
183 195 188 177 202 206 207 215 194 197 188 189 198 205 196 209 239 239 233 245 229 216 211 220 215 213 235 228 225 215 216 215 217 215 218 162 222 223 220 221 225 225 220 227
189 185 180 186 197 199 200 219 206 189 198 195 195 182 198 214 241 234 243 232 223 226 210 239 218 213 214 216 217 212 218 212 219 216 198 176 212 210 207 209 209 213 208 208
188 185 188 197 184 197 214 219 210 197 188 189 194 184 181 197 215 271 236 243 223 218 236 245 237 214 209 213 216 213 128 208 222 221 216 212 203 206 212 220 219 202 198 189
186 190 188 191 197 210 205 190 213 193 188 198 194 198 186 176 197 241 272 244 241 221 217 232 226 230 230 225 218 232 228 209 134 228 218 223 223 211 204 205 233 242 226 244
195 200 187 198 199 184 193 205 223 194 186 183 195 185 198 203 191 196 225 259 251 262 226 223 222 219 227 218 217 221 221 224 230 234 227 222 219 215 219 220 201 218 181 190
194 195 202 192 197 214 177 201 182 203 187 198 199 190 200 181 194 164 211 225 242 258 256 241 234 225 224 227 222 226 242 217 228 227 207 224 196 209 216 218 195 201 203 193
197 202 208 216 218 214 219 196 204 210 192 181 192 192 186 184 193 196 181 216 230 241 271 245 239 237 236 224 219 236 190 204 206 187 228 196 198 214 214 187 156 168 190 212
204 201 211 212 214 208 190 198 203 209 189 178 190 198 190 185 186 193 195 197 213 234 224 272 250 244 239 241 244 188 188 164 192 219 168 176 177 195 179 203 183 186 196 201
212 209 207 208 191 213 189 218 199 213 198 195 187 195 187 174 187 174 195 178 213 237 234 224 279 276 251 234 234 210 185 180 191 173 175 181 199 189 182 188 189 184 190 192
219 224 218 206 198 202 204 213 201 204 218 187 191 189 195 185 180 176 192 189 210 190 225 211 239 271 273 279 244 247 201 200 206 185 188 185 188 199 221 212 195 195 196 204
225 223 213 219 199 209 212 207 225 210 210 190 183 184 198 197 186 180 187 171 205 198 181 204 230 222 259 258 259 287 272 223 213 193 197 205 222 222 202 192 222 213 213 210
221 212 212 212 205 214 240 196 217 220 206 196 193 196 195 188 179 180 185 177 200 181 199 190 247 213 220 238 256 242 249 258 249 236 207 227 206 207 207 209 216 218 215 215
230 217 226 215 216 221 236 197 215 213 206 190 204 193 182 197 198 185 194 189 180 207 201 191 199 223 189 227 222 223 235 249 251 251 244 232 226 222 219 221 219 216 217 220
243 246 233 227 221 232 225 205 203 208 201 173 190 197 190 189 189 188 189 172 188 201 207 190 185 215 207 194 232 228 227 222 216 214 221 259 261 254 249 246 245 239 236 233
222 254 250 234 241 239 222 221 204 183 205 166 200 199 191 199 196 186 188 180 185 171 183 191 180 193 226 223 212 212 222 240 233 236 239 226 220 221 222 227 229 223 234 240
197 226 276 246 226 201 211 220 205 207 197 205 181 198 192 197 198 191 191 200 190 182 211 197 196 191 208 207 197 210 219 222 223 229 231 229 230 226 230 217 224 213 215 234
257 253 260 223 243 228 202 217 213 182 90 207 205 97 198 188 197 197 160 148 180 194 191 208 203 198 200 203 208 211 221 220 216 217 222 228 227 226 228 217 219 211 224 225
275 267 263 268 182 223 227 218 155 203 205 208 209 211 191 138 190 181 197 186 190 202 200 183 200 190 189 202 204 206 210 211 217 212 214 219 220 218 221 214 226 218 232 206
279 274 273 265 251 236 237 230 211 221 205 207 206 206 228 214 194 205 186 193 200 190 201 189 198 202 199 199 200 205 207 213 216 213 215 213 213 222 221 224 225 219 217 233
270 266 261 257 251 237 233 213 223 215 221 212 213 215 200 203 205 209 189 204 201 204 200 199 197 206 199 200 202 204 213 211 213 212 213 217 215 213 222 220 220 205 223 225
274 265 250 247 241 229 223 220 226 214 212 217 213 213 204 204 216 208 203 205 209 207 199 202 196 205 203 203 203 209 207 214 213 211 181 216 205 207 220 219 204 221 212 232

GFSCGP_2pvu_pres_066.txt.gz
Presure
193 187 181 193 186 160 176 206 187 192 218 194 194 197 189 205 250 244 231 230 220 230 229 243 278 240 249 227 227 226 242 169 192 224 247 195 208 201 203 195 194 193 186 195
170 177 171 181 169 188 179 206 179 181 206 193 188 196 190 200 256 255 245 236 225 223 216 229 260 236 233 228 215 218 124 200 214 238 224 204 192 190 175 192 196 192 182 181
184 164 149 149 175 185 196 192 203 193 203 220 203 193 188 206 220 260 268 241 242 222 215 227 225 268 257 253 224 220 202 216 123 203 204 212 202 210 211 188 192 201 175 182
188 164 195 156 159 196 200 193 199 202 197 215 223 197 188 201 196 239 245 236 244 255 249 238 242 237 252 243 193 254 241 212 219 211 237 200 180 205 188 184 191 167 184 187
157 184 188 197 189 141 156 184 196 191 195 201 218 178 200 187 195 233 251 238 253 241 242 235 234 223 227 246 237 235 232 196 251 242 235 233 200 201 189 176 176 184 181 180
187 191 179 180 180 171 187 200 181 195 196 190 221 195 200 185 194 217 256 250 256 248 233 232 236 227 218 220 238 229 232 227 225 226 227 222 229 237 194 193 189 163 193 209
161 152 203 178 189 199 196 177 202 178 183 201 222 206 195 198 192 194 233 259 238 266 229 214 217 222 220 221 218 226 221 223 214 214 212 213 214 216 224 228 124 187 227 226
195 187 202 153 179 186 193 187 181 210 187 213 203 216 199 197 199 193 207 225 255 259 239 227 224 229 236 215 214 213 221 221 217 218 215 178 213 219 217 217 144 215 213 212
201 212 199 205 196 195 190 178 183 198 198 189 216 205 198 195 188 178 199 212 229 251 252 245 224 235 240 237 216 214 218 217 227 230 225 223 226 243 223 221 227 223 215 203
200 191 202 186 190 193 168 193 196 202 184 202 205 212 202 175 195 203 198 213 211 234 247 245 248 231 230 236 239 224 227 219 219 224 226 217 229 218 222 222 215 213 218 214
204 196 193 197 196 188 188 194 191 193 191 199 232 216 203 206 195 187 192 195 201 220 233 224 257 247 235 229 223 231 225 201 192 203 202 197 195 191 196 198 192 203 196 200
197 199 215 201 198 196 199 193 182 193 201 195 222 192 200 194 193 184 191 185 177 201 222 230 225 263 248 243 254 226 212 188 206 188 163 214 205 187 188 200 187 175 188 189
222 230 195 201 203 195 190 194 194 193 206 221 215 201 208 195 190 202 173 181 204 173 229 215 236 221 267 251 234 239 189 185 190 185 184 200 157 229 205 193 191 179 172 187
221 217 223 206 192 197 199 202 200 219 210 218 180 196 224 204 180 197 185 191 189 195 205 209 204 224 258 270 260 237 189 191 183 194 174 201 192 177 204 176 193 185 190 182
214 222 220 214 206 196 205 208 197 213 216 213 191 221 216 213 185 194 191 182 164 192 210 197 209 217 249 268 276 205 216 189 198 184 194 184 190 193 180 184 195 188 183 186
226 217 215 215 211 209 211 206 207 213 206 219 189 210 211 209 202 184 182 191 181 160 195 191 170 235 218 242 243 260 271 195 187 197 210 193 188 199 179 203 182 179 181 180
239 234 227 225 214 214 217 216 216 211 216 221 210 212 213 206 219 194 193 196 191 179 165 184 181 214 200 188 202 223 261 244 252 214 193 189 197 196 199 182 182 186 187 188
245 248 245 226 224 227 122 221 210 226 221 216 200 194 205 214 194 206 200 183 190 191 182 192 170 183 215 193 187 202 214 259 233 248 241 253 235 222 221 202 202 226 221 217
253 236 252 250 244 230 206 121 215 219 206 200 200 203 212 209 212 210 179 192 193 200 194 185 184 184 185 190 178 195 191 211 220 236 241 248 253 250 246 243 230 220 222 220
258 261 249 245 247 248 227 224 212 208 205 206 207 221 225 209 224 207 214 202 192 195 190 176 186 179 178 177 180 183 192 201 193 219 221 232 238 234 237 236 238 238 244 241
297 279 261 259 250 252 245 225 220 217 212 218 219 226 224 207 216 210 187 198 199 202 200 200 190 199 177 195 201 204 205 188 188 203 213 207 218 224 233 229 218 221 227 228
319 316 284 240 252 260 275 240 220 227 109 211 214 221 221 202 201 210 209 187 199 199 200 199 193 192 188 190 197 185 188 203 205 204 204 204 208 210 205 214 214 218 216 214
321 290 191 261 252 234 241 273 267 139 235 220 220 225 224 207 203 204 208 198 175 203 150 200 127 197 203 196 200 203 191 204 204 201 202 203 205 209 207 216 212 211 216 212
296 280 274 261 201 203 210 230 123 194 236 225 225 228 208 116 205 200 203 189 208 206 195 199 198 201 188 191 180 201 200 192 205 205 205 203 203 206 210 215 214 210 213 204
312 272 250 256 178 239 251 263 245 259 255 214 223 216 204 213 218 204 202 204 210 208 212 223 199 202 201 198 208 206 202 198 204 201 205 210 195 206 210 215 210 209 211 194
294 290 268 188 253 254 263 280 285 277 256 233 224 213 209 220 224 217 201 210 201 213 192 199 210 213 206 205 207 210 197 201 206 203 205 210 208 210 213 215 214 206 211 207

GFSCGP_2pvu_pres_069.txt.gz
Presure
192 188 202 211 194 183 178 194 179 172 199 186 192 197 180 213 191 192 216 257 256 241 233 228 221 251 263 272 232 232 183 175 203 193 183 182 190 177 180 168 201 151 158 157
187 180 185 194 196 174 162 168 184 192 181 203 193 196 197 225 196 208 211 262 255 256 249 249 232 241 264 250 260 193 248 194 204 184 190 169 136 165 158 182 196 190 190 182
187 187 185 194 197 184 183 187 157 198 194 187 189 193 191 226 202 196 206 269 250 246 239 234 213 237 238 256 240 198 254 232 193 184 122 191 189 174 120 164 176 186 187 199
195 191 190 194 194 196 190 159 207 180 198 157 186 204 182 206 210 182 195 226 257 250 257 249 255 243 247 250 239 237 235 247 204 205 194 193 133 121 143 180 171 164 180 170
194 194 190 189 189 155 196 151 186 193 181 208 191 184 189 221 211 191 190 205 276 248 239 244 241 235 235 241 239 247 227 229 235 189 189 184 136 178 185 195 172 197 248 204
186 187 187 188 182 188 176 176 145 197 154 186 206 201 210 188 206 215 194 196 238 259 234 258 239 233 231 224 231 234 236 242 258 252 249 239 239 229 222 207 217 206 227 214
187 190 191 192 191 191 198 182 183 205 176 204 186 181 196 206 207 194 205 198 197 243 254 261 226 215 223 226 222 233 229 227 226 237 233 235 200 212 234 234 233 235 224 223
188 185 188 180 184 191 196 191 195 188 167 174 189 183 199 188 213 211 190 189 208 222 236 253 242 226 219 216 228 221 227 233 225 222 225 232 226 232 232 227 223 217 216 215
189 191 188 189 193 197 181 193 201 203 193 188 195 200 183 202 230 208 186 203 211 204 225 227 266 244 228 229 231 232 220 215 209 216 225 219 226 227 218 224 224 233 219 218
192 190 194 200 186 194 197 190 194 193 199 203 178 188 186 191 206 209 203 185 198 203 217 229 221 256 257 234 231 232 234 217 223 214 220 219 219 224 219 227 221 217 222 221
195 196 196 203 206 196 192 201 182 184 194 162 193 179 192 175 200 194 197 195 188 198 178 227 232 221 289 254 238 232 226 230 222 210 207 225 234 211 207 201 175 205 204 212
200 200 194 195 197 200 202 198 204 201 194 203 195 192 202 185 207 207 211 200 179 185 207 192 227 229 232 296 244 232 224 216 206 202 227 211 215 217 206 202 202 196 195 202
198 198 195 200 205 205 203 195 193 198 195 197 202 195 190 198 217 197 200 206 185 192 188 200 175 228 221 244 291 244 228 220 223 229 202 218 208 209 213 207 185 201 198 196
217 213 219 233 225 215 196 194 211 194 212 204 194 188 193 208 198 187 190 213 187 199 180 186 206 210 229 230 235 279 246 234 224 224 207 201 228 216 207 204 193 193 216 199
246 236 246 234 222 217 218 207 208 218 207 200 195 190 193 195 211 182 204 219 202 190 179 187 193 203 188 218 229 221 260 273 226 192 197 205 178 198 204 192 194 185 213 189
242 246 229 228 226 224 216 214 223 226 212 213 207 199 195 200 217 205 192 209 207 194 196 180 191 199 179 209 205 225 246 250 271 238 231 200 198 215 191 191 199 185 188 189
254 243 242 234 227 224 222 216 217 211 211 213 209 208 206 207 211 210 213 216 205 203 175 183 163 192 195 186 210 191 216 213 244 248 242 204 191 193 194 192 195 187 187 190
252 243 241 249 236 230 232 164 213 213 216 213 208 207 203 203 218 220 216 194 210 203 210 190 187 195 178 178 199 179 184 200 196 240 248 233 229 231 231 228 219 209 193 192
273 269 259 245 242 152 101 119 226 121 213 217 215 214 216 214 216 224 190 198 211 196 204 202 188 200 198 189 161 193 166 188 168 203 180 209 226 205 220 228 174 239 230 226
235 258 260 267 267 260 241 252 234 225 231 217 224 219 210 212 216 212 193 210 203 210 200 203 205 191 188 195 193 189 186 167 186 161 161 203 197 190 184 207 208 219 214 226
313 294 267 221 256 279 258 229 240 245 189 220 223 226 221 216 216 213 209 202 211 221 212 208 199 194 201 198 201 204 196 191 189 194 204 203 187 197 200 205 206 213 213 208
312 314 222 261 194 245 257 250 246 240 232 241 236 231 224 218 215 214 208 203 219 206 208 218 200 220 190 202 197 201 199 195 199 181 199 205 204 196 200 196 206 204 209 204
272 290 309 299 278 253 249 256 238 246 201 236 92 99 120 228 227 232 229 210 214 205 226 205 209 208 193 192 201 127 193 157 193 199 197 198 204 205 198 202 204 208 200 210
286 285 295 306 305 267 257 250 201 274 256 253 252 238 236 218 206 210 211 213 217 210 217 201 200 203 213 210 179 191 192 196 201 202 204 198 207 204 205 205 204 213 202 209
303 278 290 239 313 277 167 215 227 252 239 259 220 255 256 239 228 224 218 205 218 214 216 213 205 181 200 202 203 208 205 207 224 197 205 209 212 203 205 209 214 211 206 208
308 297 282 290 321 309 175 267 266 228 259 259 242 240 272 269 260 253 233 229 214 218 210 214 212 205 194 199 206 212 209 206 202 192 204 216 213 210 205 207 211 205 206 209

GFSCGP_2pvu_pres_075.txt.gz
Presure
176 177 191 187 187 196 183 198 189 204 164 187 204 197 172 175 214 181 193 196 211 225 225 204 272 260 264 245 240 238 202 193 201 202 203 187 192 176 205 193 186 168 149 207
197 193 204 194 196 196 189 196 194 192 182 186 198 197 177 165 214 185 186 187 220 227 219 214 211 253 261 263 257 233 213 196 194 201 187 199 192 184 171 171 190 175 157 178
181 196 174 198 194 191 193 190 196 198 192 186 194 198 168 185 157 213 191 181 199 227 219 212 200 257 275 254 241 240 233 235 196 187 201 185 194 184 188 181 172 133 136 171
201 179 192 192 194 192 196 193 188 199 186 192 190 186 182 198 172 199 194 195 190 228 218 216 207 222 269 250 255 229 239 244 237 195 188 205 182 182 191 190 176 181 191 179
194 210 211 201 197 196 189 191 191 180 196 186 190 176 189 184 180 142 183 215 183 202 221 210 204 209 264 250 245 248 255 232 246 254 221 246 190 201 196 184 180 157 155 123
197 208 207 199 188 193 197 196 194 194 180 189 178 181 176 199 143 137 184 206 189 199 206 216 202 207 212 243 234 240 239 241 233 251 241 238 216 202 189 177 183 185 176 176
210 197 200 189 192 191 193 197 193 190 194 177 181 175 182 164 158 195 181 194 181 192 204 219 191 199 205 247 242 227 234 236 240 234 245 236 236 253 244 234 190 182 179 181
202 198 196 195 196 197 200 195 201 206 179 176 184 181 185 189 187 196 197 201 189 212 191 214 214 201 192 199 229 241 223 217 219 234 226 227 234 239 245 241 203 233 192 195
200 199 197 196 188 192 196 201 197 199 194 184 182 175 185 185 190 187 190 200 168 170 182 217 192 207 193 195 223 227 265 232 216 222 224 218 224 229 233 232 217 233 235 186
196 194 197 195 188 197 196 198 198 196 186 184 178 181 183 183 188 176 194 190 202 182 206 201 213 196 210 192 194 217 225 264 238 226 223 215 222 214 218 221 225 226 227 225
196 202 199 198 199 198 200 187 197 194 198 191 176 179 180 184 191 189 183 193 195 169 197 193 211 208 205 186 195 192 212 225 264 246 238 229 215 221 222 214 216 215 216 214
206 199 195 204 200 190 204 200 195 198 195 186 193 176 177 187 196 190 192 190 194 199 189 189 192 211 209 184 182 196 193 211 231 260 235 240 240 221 215 220 215 223 215 223
200 209 207 215 197 199 191 202 204 202 199 202 192 180 177 190 192 195 191 193 197 214 198 199 192 209 206 201 212 186 194 178 216 227 263 245 231 237 235 229 211 217 204 224
203 175 208 201 201 201 199 193 193 200 195 195 190 195 196 191 192 137 186 196 196 215 194 187 209 190 202 200 201 181 191 192 181 197 226 260 255 247 222 232 224 220 225 223
208 204 205 207 208 204 203 206 200 195 196 194 191 192 190 191 193 195 197 190 199 215 198 203 208 188 209 205 215 205 173 184 190 190 191 191 241 266 259 224 234 221 231 217
216 229 227 212 212 213 195 195 200 201 200 200 200 195 194 195 196 191 201 207 214 209 192 207 206 189 210 207 204 204 206 211 179 184 197 191 181 210 261 258 248 217 248 222
219 218 218 207 207 208 205 207 213 213 212 209 200 198 202 200 201 204 201 233 232 210 203 208 196 197 189 204 199 203 209 203 198 188 188 183 197 192 191 213 230 234 237 244
228 230 225 223 222 225 215 218 221 223 220 214 218 217 210 205 202 210 231 224 223 218 204 214 207 201 202 205 193 200 203 200 203 208 207 191 182 189 203 188 211 194 197 172
249 243 239 238 236 231 231 225 227 219 217 230 229 224 229 227 226 224 228 218 216 220 218 207 214 211 204 205 194 216 204 198 204 201 206 192 189 177 156 173 194 189 180 174
269 263 259 254 248 243 227 231 225 235 222 228 236 234 239 237 234 228 219 223 220 217 212 218 214 204 204 198 208 210 213 206 196 200 203 205 200 194 199 181 186 176 167 191
283 285 279 273 270 264 261 265 264 259 255 253 124 199 251 248 252 235 230 217 215 221 212 213 210 212 206 203 209 193 213 216 202 206 207 204 202 195 197 195 151 192 193 199
259 265 267 269 268 268 154 278 271 275 281 272 267 259 251 254 248 240 232 230 217 218 214 214 211 209 207 206 208 211 199 213 209 197 213 209 202 202 199 201 202 185 195 202
277 231 295 295 296 279 264 106 121 246 260 263 256 274 255 245 237 241 240 234 230 222 221 220 212 210 209 208 207 207 208 208 216 192 195 199 204 212 202 202 208 186 191 191
314 316 317 313 295 313 322 281 271 201 262 267 264 265 271 93 264 246 233 232 230 228 224 213 213 210 212 210 210 206 208 194 208 210 127 203 202 214 218 219 210 204 202 203
289 290 289 291 289 294 297 246 318 324 295 264 263 265 263 258 231 269 254 235 232 235 236 232 231 225 219 215 216 219 211 211 209 208 213 187 208 211 215 212 211 208 211 204
179 281 282 281 235 273 274 294 299 300 300 306 308 288 274 272 259 258 261 259 251 234 232 227 241 240 228 217 215 213 218 219 218 213 220 219 213 209 207 212 213 213 214 209

GFSCGP_2pvu_pres_078.txt.gz
Presure
205 199 218 200 219 192 201 190 187 186 188 195 188 196 189 185 200 197 180 178 179 189 199 232 210 209 273 250 276 259 245 238 205 201 185 202 170 176 198 189 195 186 180 198
226 225 196 191 186 199 199 190 186 186 199 197 186 188 195 185 199 194 201 178 186 207 200 236 228 211 224 267 265 265 243 245 234 192 216 208 200 196 188 184 182 180 168 181
224 221 216 207 204 191 180 180 193 196 197 188 189 191 196 190 200 190 197 215 207 213 205 188 227 211 214 279 270 264 250 241 232 224 196 201 218 188 190 174 180 179 189 181
222 199 210 187 191 204 202 195 192 193 196 189 188 191 188 196 191 185 192 210 172 185 179 213 227 216 213 229 261 260 242 229 243 262 202 197 186 192 184 187 181 187 180 189
213 207 213 194 198 207 188 212 176 188 191 186 188 194 192 196 190 189 189 204 203 146 187 196 229 222 201 215 266 248 247 264 221 241 237 203 191 184 186 203 199 171 184 175
205 221 213 201 207 197 191 193 186 186 194 182 194 183 185 190 190 189 193 193 146 154 199 182 216 219 205 200 208 250 239 238 253 229 238 245 224 193 193 181 186 192 186 172
227 224 204 207 199 193 203 199 187 197 195 187 189 193 185 187 180 181 192 192 170 182 199 195 196 223 208 203 207 215 247 236 234 246 240 242 239 247 218 191 193 191 190 199
225 222 212 200 204 197 188 205 213 192 192 190 198 191 184 186 181 194 177 188 190 196 202 179 175 216 210 209 200 201 214 243 233 222 226 237 239 241 239 241 234 246 191 188
212 209 218 216 216 210 200 204 207 191 195 190 185 190 182 187 176 188 189 193 195 196 199 196 182 185 213 201 210 201 201 215 260 241 225 224 222 227 230 231 236 230 229 231
213 207 205 199 205 195 205 204 199 192 194 196 191 186 180 186 187 189 186 191 188 199 200 195 190 202 191 217 204 203 195 183 210 215 246 227 223 217 219 221 231 231 225 219
213 213 214 204 212 198 204 196 192 195 191 193 195 188 170 183 184 182 186 188 187 181 198 200 184 198 196 193 216 214 201 190 197 209 269 251 238 225 227 220 215 217 214 214
214 208 211 211 205 208 204 202 200 201 186 193 195 191 187 186 187 187 183 188 187 194 200 172 199 194 211 209 200 213 210 199 193 201 204 263 262 229 254 234 227 210 211 206
195 194 206 200 203 200 195 199 193 194 199 186 201 191 187 171 191 184 192 191 187 193 197 199 197 194 214 196 200 202 206 211 206 194 187 195 211 260 250 231 235 224 219 215
201 203 201 200 196 199 200 198 202 201 200 201 202 191 188 185 189 186 189 179 180 196 194 198 192 194 202 219 202 183 205 207 208 197 193 191 197 204 217 269 246 225 230 230
200 219 210 203 202 205 201 195 194 194 192 204 190 206 194 198 189 195 189 189 194 197 194 196 193 191 199 221 204 198 209 207 205 197 208 183 193 191 199 185 210 268 239 236
215 204 222 216 208 210 209 205 208 200 213 214 205 199 203 197 193 197 193 191 188 189 200 194 193 198 202 222 206 211 183 210 207 205 200 197 184 188 190 193 200 197 238 270
219 214 208 223 222 217 213 206 205 211 196 198 199 202 199 195 194 191 194 193 195 192 197 203 197 201 210 226 214 213 206 181 190 210 202 213 204 205 188 189 191 189 198 205
220 224 220 216 217 222 204 211 206 206 208 209 209 207 205 203 205 203 198 195 194 198 198 202 203 199 211 218 213 209 217 204 193 195 207 210 204 209 203 209 196 178 184 189
226 223 222 225 229 221 210 217 217 207 205 207 214 211 224 208 207 201 200 203 201 202 204 205 212 209 239 225 213 203 217 209 209 195 198 207 203 202 204 202 206 205 200 184
250 249 238 229 235 229 222 231 213 205 222 224 217 209 211 212 210 212 214 215 218 215 215 218 220 236 223 217 209 214 208 214 217 194 199 205 209 206 203 201 197 203 204 204
249 245 246 246 238 236 244 233 226 223 218 222 225 223 225 195 233 225 227 166 220 229 213 212 218 221 225 221 214 213 207 219 212 197 196 201 203 210 209 201 194 203 199 199
266 265 257 244 244 245 244 248 247 242 240 238 234 237 242 240 235 197 179 174 224 221 224 224 225 222 212 218 221 222 207 217 204 205 212 211 206 201 205 204 201 193 206 210
252 253 254 256 264 272 277 276 206 215 264 255 249 250 250 251 256 264 262 254 247 243 242 239 236 235 221 213 212 213 214 209 210 202 195 200 204 198 206 195 209 202 194 195
281 278 275 270 269 269 274 139 278 280 278 260 286 286 285 282 280 279 279 260 273 261 249 242 243 241 234 227 216 213 214 211 212 212 205 201 202 201 193 159 194 205 209 199
254 258 263 268 216 294 296 292 289 271 268 265 265 263 263 189 268 267 264 268 275 276 270 257 244 247 190 232 239 225 217 216 192 214 211 208 209 203 203 199 203 201 206 206
307 308 306 302 305 303 307 312 308 309 307 305 302 308 305 298 278 273 273 273 261 271 275 266 253 244 237 243 245 238 231 222 220 216 214 212 214 212 206 204 206 214 201 212

GFSCGP_2pvu_pres_081.txt.gz
Presure
271 279 230 230 203 230 83 211 198 185 161 166 178 193 184 187 200 201 194 202 199 220 207 189 192 178 223 214 256 261 259 276 258 222 207 209 183 238 205 198 208 176 186 202
218 242 221 208 198 206 217 207 196 194 192 178 187 184 187 183 206 196 196 187 196 198 211 211 191 228 213 216 273 276 272 274 259 244 202 219 187 222 190 189 197 203 185 185
269 211 225 206 214 225 209 208 203 202 195 186 187 186 190 193 197 198 199 195 191 202 216 200 167 236 226 216 241 271 259 261 268 256 218 195 208 207 196 188 172 186 198 200
271 263 240 240 234 220 201 218 210 194 192 190 179 182 190 196 194 197 192 194 196 189 210 208 198 175 198 215 204 272 252 264 256 246 237 222 202 195 194 183 184 181 173 185
256 246 231 230 216 212 210 215 199 198 201 176 176 183 176 194 196 196 194 192 192 188 191 212 163 201 191 222 203 227 252 253 259 221 227 245 213 202 188 208 181 177 191 182
239 229 226 229 228 210 211 217 212 196 175 208 184 188 185 193 194 189 187 191 192 187 187 143 143 196 203 225 215 203 224 248 243 262 225 252 227 250 204 189 195 183 175 178
232 217 215 226 218 208 209 206 198 188 180 198 183 178 185 192 196 192 193 189 193 187 183 141 209 186 207 206 216 214 210 220 234 243 249 253 250 226 231 195 203 190 190 188
228 227 215 224 217 206 208 206 202 191 203 198 182 178 182 186 191 190 191 190 187 188 190 180 189 201 186 188 208 213 215 208 223 224 249 234 252 245 228 208 230 196 201 185
219 215 211 219 214 208 195 199 198 195 200 192 193 185 187 189 189 183 193 189 190 190 182 188 199 190 202 196 185 219 215 212 204 216 216 257 235 236 244 247 237 208 214 194
219 233 211 206 219 223 211 205 199 197 194 199 202 189 195 185 188 179 192 189 189 189 192 192 185 195 200 198 199 186 202 215 211 199 213 218 271 247 236 237 237 238 239 243
207 228 221 205 223 223 214 203 198 197 187 200 190 201 193 187 189 188 185 191 190 184 188 191 192 181 197 199 195 209 207 205 214 212 201 209 215 252 253 235 226 230 228 228
214 206 204 205 215 220 213 213 197 205 204 199 198 197 190 186 190 194 191 194 194 188 189 193 189 190 196 207 206 194 187 194 194 212 212 199 199 204 227 269 236 221 220 221
218 216 201 212 205 211 212 206 206 203 205 205 201 191 190 188 187 189 196 197 190 190 196 183 192 191 196 198 198 199 203 201 203 195 212 212 196 200 199 211 252 256 255 230
214 222 203 208 212 209 205 213 204 195 194 197 202 200 187 193 191 186 188 197 199 199 181 190 185 189 183 202 200 196 198 206 228 205 197 210 208 190 190 199 207 207 231 251
204 203 222 210 212 211 210 205 217 206 210 207 204 201 197 195 194 191 181 197 197 198 192 182 190 201 198 203 195 199 195 204 215 219 198 201 208 208 210 184 192 192 195 198
216 214 211 212 212 216 210 199 112 208 203 202 199 200 207 198 201 201 190 199 194 187 186 191 196 196 188 199 202 189 202 194 204 221 205 195 193 203 209 206 202 184 190 189
226 222 217 207 205 206 202 198 190 201 202 197 196 199 195 198 205 203 192 213 203 205 195 192 197 184 203 195 199 200 207 202 197 215 203 205 195 182 213 202 206 212 202 202
217 212 213 211 204 208 202 205 196 196 197 203 202 200 194 193 204 198 194 205 194 194 191 193 188 192 192 200 199 204 204 198 206 208 223 204 201 190 188 192 197 195 203 207
204 221 216 209 209 204 206 200 207 206 205 207 202 200 198 203 190 211 191 206 202 193 196 196 192 193 196 200 203 203 203 210 213 226 228 208 213 206 192 197 194 199 201 202
223 219 221 216 207 227 216 210 214 208 225 219 217 215 210 212 203 206 200 205 202 203 202 199 200 203 202 201 204 204 215 217 211 242 228 219 202 214 206 190 195 196 205 203
230 222 227 225 220 213 209 210 216 221 213 207 210 220 225 212 213 216 207 204 205 201 203 203 209 211 193 205 209 214 219 210 218 243 223 221 214 217 213 209 201 192 205 202
232 232 226 221 224 227 228 185 222 221 221 146 222 222 225 222 220 218 214 211 211 219 221 229 208 209 212 196 222 220 219 225 211 219 231 229 222 220 215 223 209 193 193 197
249 243 236 233 223 227 230 232 230 228 231 229 228 228 229 233 238 233 229 226 227 225 223 224 221 222 227 228 227 227 222 216 222 217 216 217 222 224 221 220 214 206 204 208
245 246 246 249 239 238 232 227 239 248 130 90 239 255 257 255 189 247 253 245 243 243 243 244 246 246 242 238 239 232 228 225 225 227 227 215 215 214 218 218 214 216 211 211
201 259 224 250 249 250 250 249 248 252 258 260 261 262 263 266 267 268 267 266 267 267 267 271 271 269 268 267 266 263 261 258 242 234 233 235 221 215 214 213 214 211 211 212
280 265 256 256 255 258 262 258 256 259 261 273 285 287 284 282 284 286 287 289 292 293 288 290 288 286 282 279 280 276 277 271 260 252 236 236 235 227 219 214 213 214 213 213

GFSCGP_2pvu_pres_084.txt.gz
Presure
240 238 375 180 225 170 275 232 232 226 230 221 221 198 202 192 175 179 189 181 182 201 196 205 198 214 211 247 191 235 308 291 272 271 220 221 209 184 213 218 197 193 190 195
259 141 214 186 234 220 216 228 208 225 217 221 211 204 201 188 176 183 180 187 188 199 200 206 200 197 209 201 182 191 289 293 287 298 240 223 202 208 196 248 192 199 197 199
291 247 224 234 232 185 219 218 224 215 209 235 198 195 193 194 189 185 186 181 191 191 200 196 201 193 207 200 205 209 238 266 280 276 269 220 211 202 198 243 176 204 194 190
273 298 256 254 259 226 235 221 214 204 231 223 202 191 196 196 188 196 168 175 192 196 195 192 199 194 218 202 225 191 219 264 276 263 266 251 220 202 204 193 215 193 192 222
294 289 276 255 254 219 207 212 207 206 206 221 199 195 200 194 187 189 185 174 188 198 198 195 197 195 209 181 204 222 215 226 261 280 252 250 236 202 198 181 206 172 174 189
275 280 272 255 246 258 216 207 214 219 232 225 195 194 190 193 192 182 177 182 188 189 192 188 193 189 185 199 174 220 182 207 229 245 235 250 234 216 193 187 208 201 198 178
253 251 251 260 256 235 230 224 213 220 227 202 200 199 185 189 193 186 185 185 183 190 191 198 191 188 184 160 187 219 195 228 204 227 246 260 227 231 224 193 187 208 199 195
250 240 239 249 252 231 225 227 219 212 215 217 205 190 187 188 178 191 185 186 180 182 193 188 191 188 187 138 201 190 208 181 230 205 224 237 248 259 257 246 195 197 200 185
238 231 225 239 236 227 223 213 212 212 207 214 202 210 195 200 177 187 186 178 181 185 187 190 190 186 194 182 193 189 202 230 184 235 197 222 226 267 249 243 217 201 193 196
239 227 235 238 225 222 215 216 214 211 209 209 203 197 188 185 185 191 184 186 183 188 189 184 191 189 191 191 195 190 201 197 211 190 225 203 222 224 281 243 248 232 211 213
238 224 222 224 209 212 212 220 209 203 208 200 197 192 187 198 201 192 191 185 184 189 187 186 197 184 190 191 198 191 199 200 197 210 224 214 207 214 224 242 262 230 240 247
239 222 218 216 219 214 214 214 208 204 196 201 203 201 207 192 205 191 192 185 185 190 187 189 177 184 180 190 188 194 190 208 204 194 213 226 207 222 198 214 224 260 258 229
231 224 219 213 205 202 202 212 216 202 203 199 197 198 201 192 198 199 208 185 197 194 188 191 197 198 193 190 193 186 182 192 198 194 207 229 215 202 218 195 198 215 221 263
236 223 219 214 214 232 214 212 207 209 206 204 199 199 203 203 206 200 191 200 199 194 189 186 184 192 197 198 199 183 186 191 187 200 193 194 215 221 194 211 216 191 198 211
234 222 216 213 212 206 221 217 208 215 211 211 205 201 195 196 196 216 208 204 198 194 189 190 193 187 196 197 194 194 190 189 208 205 186 200 201 213 216 193 205 208 209 190
235 213 217 221 224 213 205 207 209 207 213 212 210 202 213 212 211 205 202 201 201 189 190 193 193 185 193 197 198 192 189 196 199 187 201 188 191 202 209 216 189 202 201 206
233 229 221 212 221 204 201 201 202 210 204 204 212 206 211 210 205 196 198 197 201 201 199 192 187 195 192 191 213 210 205 192 194 201 201 203 216 195 208 206 220 198 186 207
231 235 227 221 219 216 205 197 197 200 214 215 207 205 205 207 205 204 206 204 194 199 200 193 198 193 203 184 194 196 195 199 202 202 203 205 203 206 196 220 230 214 203 192
246 230 225 215 210 213 220 201 206 203 200 216 201 210 206 202 207 204 199 199 197 200 200 202 200 212 199 203 209 204 169 172 196 191 195 198 203 203 210 219 223 228 211 207
241 238 234 223 210 207 213 213 220 219 215 197 215 210 203 200 196 198 201 199 199 201 204 202 202 194 194 194 193 193 193 198 197 198 207 201 205 193 216 212 215 232 228 213
236 243 239 221 219 206 213 214 205 203 211 217 208 201 200 196 200 204 207 216 213 201 199 194 206 205 193 199 203 203 203 202 206 205 204 206 205 217 212 229 221 216 235 226
245 234 238 233 223 217 217 148 214 217 209 209 208 211 207 208 201 199 202 203 208 209 201 202 204 200 203 204 206 206 207 205 203 164 212 218 231 214 209 225 221 222 224 225
148 239 230 233 230 222 220 223 212 215 211 119 209 218 217 214 215 210 214 202 202 219 217 217 217 215 222 213 212 209 207 208 213 215 226 218 214 212 229 223 221 218 220 228
248 241 235 230 228 227 221 229 222 222 224 223 213 211 209 212 212 210 219 221 219 221 216 214 215 218 216 215 216 218 217 216 216 223 224 226 231 237 238 228 223 218 222 218
262 245 240 235 232 230 229 227 226 229 228 165 202 208 226 225 227 230 230 227 163 226 231 238 235 236 240 237 250 247 246 246 241 242 248 249 249 253 256 253 253 226 227 227
286 271 245 241 238 234 234 233 231 234 232 231 233 235 235 233 233 233 231 229 234 236 236 255 256 266 270 273 271 273 301 299 288 279 277 282 281 275 272 271 263 266 240 239

GFSCGP_2pvu_pres_087.txt.gz
Presure
212 213 219 233 165 170 233 206 249 301 209 223 235 226 149 221 202 201 200 202 194 179 173 190 194 205 202 203 215 230 211 198 234 312 292 277 240 220 206 223 227 203 214 207
214 225 221 158 210 278 263 279 332 290 236 252 274 226 229 219 214 205 207 197 192 186 181 190 184 196 201 199 212 236 206 218 229 287 287 280 257 220 220 207 217 233 247 226
184 192 217 232 218 250 190 187 262 278 231 226 266 232 220 216 212 199 208 195 189 188 182 186 188 199 199 201 204 193 214 215 228 280 286 279 272 240 214 215 222 174 238 213
220 229 159 200 334 220 362 300 243 273 224 246 229 222 218 209 216 214 201 189 188 187 189 185 173 198 199 196 196 198 220 215 217 250 274 270 274 257 210 212 210 194 237 220
215 228 245 246 291 329 317 284 283 233 268 226 222 223 223 216 215 205 196 188 187 183 182 187 179 191 197 191 196 187 166 202 223 217 252 254 267 252 215 215 201 206 199 221
227 223 238 323 291 246 238 276 224 221 218 219 229 212 217 212 206 203 194 192 186 186 183 180 189 189 198 198 193 185 181 140 197 180 216 255 245 250 248 216 211 197 198 231
234 235 310 296 300 290 275 254 212 261 239 228 213 199 201 197 205 205 197 194 189 189 183 183 186 180 195 188 194 191 190 157 197 220 201 216 253 272 242 223 211 196 201 191
200 235 292 266 282 277 260 261 247 251 218 200 209 191 178 197 195 219 203 195 186 187 180 184 187 181 189 190 196 191 151 184 181 196 234 214 208 234 274 234 216 197 195 193
243 299 292 272 277 250 251 254 247 235 236 230 204 209 196 197 198 196 197 190 189 187 182 182 184 179 187 186 182 194 182 173 200 187 220 220 213 203 233 282 226 215 199 191
303 290 281 256 253 251 247 234 247 234 224 222 226 218 202 194 195 196 192 185 188 186 180 185 180 190 181 190 187 198 194 193 199 178 191 211 204 218 202 226 270 261 219 209
295 268 262 248 244 232 243 241 244 226 222 222 218 213 209 195 196 195 196 191 192 202 190 186 181 182 181 191 188 182 178 194 193 200 192 198 208 219 217 201 219 243 275 231
271 255 258 244 233 230 236 241 234 231 226 218 217 208 206 205 204 201 189 195 189 190 180 190 184 183 187 191 166 191 184 194 198 194 196 191 184 208 230 208 203 199 225 244
266 247 251 234 224 224 233 224 226 221 212 214 214 204 200 205 206 203 198 195 188 197 191 200 187 191 183 190 195 192 195 195 200 197 186 194 190 200 197 220 234 218 192 203
257 244 244 223 226 226 234 218 212 213 211 212 209 209 206 200 204 208 203 194 191 188 201 200 191 188 189 189 191 182 184 180 198 200 200 190 196 196 202 197 209 235 220 207
257 243 230 226 223 225 224 218 209 214 204 210 205 203 203 203 206 205 204 211 219 188 196 199 194 205 188 198 196 186 188 189 185 194 203 199 196 200 200 205 183 200 211 220
248 248 228 223 222 224 225 211 205 206 204 199 205 203 198 204 204 201 209 200 199 209 195 209 194 193 187 198 195 183 183 194 186 192 198 211 213 206 205 199 204 189 189 221
244 248 233 222 224 217 212 216 205 208 212 214 197 212 198 197 202 206 201 204 208 202 202 197 208 204 202 203 197 190 194 189 202 199 188 194 197 202 210 215 207 193 207 197
245 252 238 239 223 218 217 215 221 217 209 206 212 211 203 202 206 207 208 208 207 201 213 203 196 200 195 198 203 202 202 195 195 204 198 194 209 213 206 207 203 204 205 202
246 247 238 229 231 221 223 216 222 206 209 230 220 216 214 211 212 211 210 211 211 211 215 204 190 194 205 203 197 196 195 199 204 190 201 198 222 213 194 198 194 200 202 204
250 247 248 228 227 226 221 214 210 207 222 219 211 205 199 206 202 197 198 213 211 208 204 211 207 207 206 203 203 201 201 195 203 201 198 207 194 193 196 195 186 198 198 204
259 250 242 242 229 230 228 221 214 223 220 211 210 207 206 203 205 211 216 216 202 209 201 200 204 211 204 199 192 200 214 205 202 202 200 203 193 193 158 203 196 194 193 206
239 252 247 234 235 225 223 232 215 217 213 209 205 203 207 201 203 209 202 208 200 211 208 203 204 203 204 204 210 219 200 207 205 200 206 203 202 196 199 197 200 202 201 211
241 262 246 244 238 227 234 228 228 222 221 227 211 209 205 208 211 209 207 220 211 211 203 201 212 211 197 204 215 204 201 198 200 201 200 205 199 203 209 218 228 213 217 209
286 274 239 244 236 237 230 228 228 226 217 212 219 229 230 225 223 217 218 216 215 214 214 213 212 211 210 205 200 202 202 201 210 209 213 214 214 211 213 218 225 221 225 223
276 295 269 233 238 231 227 241 225 229 232 220 217 213 209 197 210 208 209 210 208 208 208 208 208 210 208 211 216 210 212 219 200 224 224 225 225 233 244 242 238 247 261 255
267 284 293 256 232 233 232 229 242 240 235 233 223 192 218 213 214 215 218 220 222 222 213 218 219 216 218 217 216 226 227 231 232 229 240 241 248 188 277 287 295 290 289 287

GFSCGP_2pvu_pres_090.txt.gz
Presure
178 177 189 191 196 203 186 209 225 211 223 221 185 196 142 220 176 258 221 208 193 196 206 192 196 195 170 193 200 209 211 213 205 217 233 248 301 291 248 241 217 196 207 217
205 200 196 198 199 202 219 214 220 211 163 233 254 205 262 296 286 260 230 221 208 184 198 198 197 189 191 191 191 208 209 197 225 203 238 271 291 280 265 238 234 223 203 203
244 218 217 212 210 213 210 145 210 182 223 212 297 235 308 301 270 211 218 218 205 198 201 192 189 190 191 188 182 200 197 211 201 214 212 229 273 286 300 251 234 226 250 198
234 225 220 154 201 223 227 219 223 228 218 254 335 301 292 277 237 230 221 216 191 203 195 194 188 187 191 188 181 193 204 204 204 207 203 218 263 265 288 295 244 229 213 232
224 225 219 218 219 213 229 217 146 230 200 335 298 309 285 239 231 219 220 200 195 198 197 194 189 174 187 189 182 201 207 197 208 202 202 203 220 268 238 278 287 241 222 208
226 220 214 221 222 244 234 240 238 256 239 269 288 309 280 218 215 212 213 202 191 204 196 188 189 180 183 180 191 197 192 203 202 203 186 216 226 218 263 267 264 263 220 204
237 230 227 216 231 239 243 242 193 219 347 302 220 287 213 216 216 227 221 200 202 200 197 189 188 180 183 181 188 190 192 198 204 194 164 200 215 222 212 256 238 250 236 218
230 227 227 243 244 244 236 256 316 332 294 277 282 194 210 205 213 211 223 220 208 194 193 191 186 183 178 185 182 188 191 184 196 205 183 194 195 201 213 210 252 219 245 215
235 239 235 251 232 247 242 239 301 311 275 274 276 199 211 213 215 213 202 215 200 196 193 195 188 184 172 185 186 179 186 188 187 198 183 140 190 201 202 195 211 224 236 242
237 238 238 231 245 258 286 272 296 273 263 257 239 203 202 215 220 216 223 212 204 200 194 198 187 189 183 181 189 172 181 189 192 187 194 170 199 186 201 201 225 208 231 246
241 241 246 251 244 298 275 268 278 258 254 251 255 244 198 198 205 201 198 205 218 206 192 193 190 187 183 179 188 181 183 186 191 174 182 200 198 201 192 196 201 225 212 207
242 246 252 261 331 276 261 253 268 251 254 242 252 232 200 200 203 201 204 202 207 201 198 187 181 187 190 180 181 182 189 181 164 190 191 198 204 202 197 193 183 202 212 204
242 264 267 294 295 266 247 240 244 250 244 249 238 230 211 213 205 202 204 198 212 197 194 197 193 190 193 181 184 183 181 184 185 188 194 185 193 204 201 207 192 198 196 196
262 283 278 294 265 254 240 243 242 248 233 237 228 222 213 217 206 208 204 199 194 199 200 196 188 182 182 187 181 186 188 184 190 190 187 170 192 192 190 205 212 203 196 190
283 281 285 265 265 248 241 234 229 235 241 252 238 223 211 209 221 206 211 201 197 196 194 198 198 200 196 190 192 192 193 187 188 193 202 190 174 194 188 194 184 212 198 188
284 287 276 250 269 248 235 232 226 231 239 239 224 217 218 214 221 207 215 211 207 201 201 199 192 196 189 178 196 198 179 185 201 191 194 194 190 183 200 192 185 208 206 205
285 281 262 243 259 252 240 233 225 232 242 229 228 222 216 217 211 217 208 209 203 233 209 201 190 191 198 202 185 190 205 195 191 190 193 195 196 193 199 201 204 194 202 206
286 273 259 243 262 238 244 232 225 227 224 226 213 211 215 216 215 208 207 212 210 208 210 206 207 205 190 194 201 205 190 210 204 198 199 194 202 199 198 197 185 192 183 212
270 277 256 243 250 235 246 225 227 223 230 220 216 210 218 217 217 209 201 199 198 204 202 202 209 210 213 203 204 205 206 192 200 201 200 200 199 196 197 189 188 195 180 204
253 265 263 244 248 252 240 232 228 222 223 214 209 209 203 199 200 206 212 210 208 202 210 208 202 204 206 206 207 205 212 203 189 201 202 200 201 196 199 198 190 194 180 183
266 259 279 249 245 239 241 242 230 225 219 220 215 208 206 207 200 212 200 207 210 206 204 214 220 214 212 218 216 211 207 213 209 207 202 199 194 196 202 217 212 202 200 202
289 286 271 251 243 240 253 239 232 228 226 224 212 213 209 208 208 209 205 206 203 211 216 208 208 203 207 212 211 206 208 207 209 205 201 200 201 214 213 203 193 195 198 189
236 264 249 272 245 236 237 259 241 225 225 216 219 218 211 218 223 222 221 225 222 217 205 209 205 214 197 203 221 205 214 215 205 204 219 205 205 211 195 193 198 189 199 192
309 281 277 289 242 236 237 237 250 235 220 221 221 220 225 211 207 219 212 214 214 206 204 205 203 204 212 204 204 209 221 204 218 216 209 209 207 204 199 199 202 196 200 203
284 277 280 272 303 238 238 238 236 241 236 222 221 224 219 219 219 219 213 215 212 204 207 209 217 212 213 213 215 220 214 209 203 203 202 204 207 210 214 212 210 208 210 209
311 282 274 287 248 294 233 231 236 232 234 241 239 238 233 222 220 220 217 214 217 217 212 215 219 218 204 215 221 221 222 221 215 211 209 210 210 208 205 206 212 207 217 226

GFSCGP_2pvu_pres_093.txt.gz
Presure
200 188 201 193 196 191 197 195 196 194 188 197 210 206 205 211 202 217 188 190 270 261 256 234 181 219 194 189 194 199 172 207 206 207 208 225 244 306 310 216 217 226 212 203
192 193 190 203 175 198 194 202 203 199 199 197 207 205 195 187 212 214 225 246 301 297 253 183 218 212 195 198 199 196 199 202 204 209 209 215 217 241 283 295 303 215 218 206
224 223 204 194 211 223 209 221 209 223 230 197 221 237 214 229 188 150 253 319 335 252 235 201 213 198 197 194 198 191 196 184 194 209 199 209 211 241 269 286 293 302 216 212
226 218 238 223 217 217 226 214 237 237 237 242 218 229 212 206 199 229 309 290 257 236 211 213 210 194 198 188 191 191 197 180 203 203 210 201 208 216 232 282 277 295 275 217
216 219 224 225 229 227 214 226 245 228 239 236 235 172 245 231 284 308 297 252 249 235 210 213 210 192 196 193 190 187 192 184 202 200 198 212 210 222 216 221 280 267 282 291
223 221 223 224 226 218 228 245 232 240 155 238 211 255 219 283 327 284 280 242 234 211 218 224 206 208 192 192 190 182 190 192 188 189 204 198 215 209 208 214 226 258 255 262
234 232 236 235 227 234 245 229 240 239 231 233 251 241 241 314 290 264 264 238 230 232 230 229 208 209 198 192 191 185 187 191 196 193 196 200 208 204 157 219 213 227 237 245
232 233 233 240 253 252 244 238 242 228 246 246 260 256 153 189 142 251 246 236 241 229 215 211 202 207 198 191 190 182 182 186 190 191 193 197 198 213 178 196 209 218 233 260
242 241 246 251 251 242 239 241 239 236 254 237 245 139 272 265 267 241 242 213 217 217 208 210 205 204 196 192 190 190 182 186 188 174 193 194 189 203 207 177 206 207 204 226
242 251 246 240 245 247 246 240 234 236 248 278 293 311 253 265 240 231 230 210 216 212 202 199 200 207 193 196 189 187 182 185 189 183 191 195 184 194 205 146 198 202 206 208
237 233 243 237 235 241 236 236 239 246 258 269 275 286 246 252 232 227 217 201 223 211 209 198 214 204 187 195 191 187 189 186 168 184 183 193 182 193 194 203 210 195 198 205
227 231 231 230 234 241 232 245 244 262 312 158 265 260 237 225 232 215 216 197 221 210 213 208 197 199 196 196 191 184 188 174 183 188 192 184 195 180 192 194 200 207 211 181
234 234 246 240 243 247 239 247 249 278 291 285 262 255 231 221 212 213 213 208 194 209 210 199 199 204 200 198 193 184 188 187 180 190 187 191 187 194 190 194 194 198 196 211
254 249 239 241 245 242 246 247 296 286 276 258 248 246 228 215 211 212 207 209 203 202 194 208 205 196 199 197 183 182 180 185 191 190 189 191 190 188 196 198 186 197 190 202
249 244 244 250 251 262 271 282 287 271 263 266 243 241 248 215 210 214 215 201 199 204 192 191 192 205 193 194 192 194 196 186 185 198 191 197 197 194 193 200 194 191 197 204
250 252 252 251 248 259 288 299 271 261 251 261 239 236 222 232 219 212 209 207 198 199 198 201 200 207 197 193 193 202 182 186 181 194 188 190 196 175 200 195 194 201 192 200
255 250 249 247 258 269 281 285 260 249 242 253 235 242 229 227 224 221 203 203 211 202 195 182 202 202 197 197 198 182 190 199 192 178 182 184 198 195 199 192 200 201 203 202
256 257 261 262 270 290 282 272 260 239 240 243 241 227 238 222 208 219 220 205 206 219 212 203 217 219 207 187 196 197 197 196 189 193 191 194 190 197 198 205 199 189 200 199
284 282 276 287 290 283 267 264 252 236 234 236 224 239 238 225 210 201 216 212 212 227 220 199 190 205 199 203 200 193 194 197 198 199 191 196 203 186 199 202 199 196 201 192
288 290 242 282 287 271 263 263 250 236 229 230 218 229 243 228 214 208 205 207 217 206 212 212 230 224 210 208 199 193 196 205 207 190 197 196 202 201 198 201 192 196 197 197
249 238 259 277 296 264 256 255 260 236 228 222 224 224 232 224 220 212 211 203 202 217 228 228 223 221 220 205 204 204 200 197 202 203 198 200 198 200 201 198 194 205 201 196
276 256 279 292 285 260 250 255 265 247 228 225 229 222 233 234 222 219 212 211 211 211 210 213 214 215 217 218 214 211 209 204 205 206 212 211 212 210 206 208 205 201 201 200
268 278 251 267 273 275 247 248 259 242 238 224 221 222 232 225 224 221 217 210 208 215 212 206 204 206 208 203 205 206 210 214 220 217 195 208 210 208 205 207 211 208 195 194
261 251 241 254 252 263 264 249 252 262 240 231 223 222 222 235 223 212 214 214 213 216 210 204 202 209 205 202 205 196 212 204 214 215 214 204 209 213 205 205 201 219 215 209
253 264 258 257 287 281 273 254 251 246 254 242 227 227 224 232 224 223 214 211 210 211 212 209 210 209 211 212 215 222 210 220 206 213 214 214 209 215 216 216 208 200 198 205
287 281 271 270 266 271 259 281 251 243 246 260 240 231 225 228 230 226 225 227 217 214 208 214 213 212 217 216 213 217 219 208 207 207 207 210 208 199 223 214 242 215 210 205

GFSCGP_2pvu_pres_096.txt.gz
Presure
198 204 181 177 185 186 206 209 198 212 207 202 188 190 187 199 197 204 206 193 190 194 207 224 196 222 252 226 243 218 198 182 176 193 193 216 206 209 241 292 203 240 222 230
203 201 193 204 196 199 196 196 205 202 199 207 202 207 202 198 190 204 204 213 199 209 209 186 231 209 281 253 239 213 191 189 192 198 199 215 206 205 218 274 299 256 224 216
206 202 198 205 191 202 199 202 207 198 195 198 199 201 143 217 212 234 216 228 215 200 189 222 243 319 288 248 221 204 188 193 194 196 201 207 213 213 227 242 276 235 217 216
218 206 201 199 204 207 204 203 211 201 202 210 208 206 201 192 209 234 224 217 196 174 158 219 321 298 193 235 174 205 190 192 195 195 200 205 204 204 219 225 240 293 286 216
222 222 213 216 231 208 205 210 219 217 200 217 243 241 203 220 236 219 209 217 238 253 245 281 299 266 257 229 209 194 200 188 195 194 200 196 209 208 210 222 230 237 282 281
239 234 221 211 214 202 233 227 234 227 241 239 197 242 142 123 232 213 218 238 242 244 329 301 286 254 245 222 209 171 198 187 193 190 190 190 201 201 204 210 216 226 230 269
236 237 238 244 236 238 240 239 235 235 232 231 231 234 93 160 216 210 254 262 260 336 314 292 236 244 245 228 215 190 198 187 186 190 194 191 196 202 206 203 203 210 205 228
234 233 231 229 232 229 225 222 222 226 228 234 235 256 228 233 175 152 163 297 333 310 317 248 235 250 240 228 213 191 198 191 191 187 191 198 191 197 198 212 209 202 181 235
247 242 237 235 234 229 228 226 229 239 241 249 258 248 243 175 233 184 280 179 219 250 280 222 212 222 221 229 205 193 200 190 189 181 187 193 172 193 195 204 208 210 180 211
243 244 246 248 242 241 239 238 243 253 251 258 251 244 169 236 257 282 313 281 272 269 232 215 219 228 227 232 198 208 199 192 191 193 176 185 189 192 202 186 201 208 218 142
224 225 227 235 240 246 246 245 245 256 252 257 253 238 232 241 265 309 192 267 260 250 209 209 221 222 226 221 201 204 189 193 189 190 182 183 173 185 195 187 194 199 199 211
226 223 222 234 232 235 240 243 242 250 245 251 253 235 246 253 310 280 260 264 241 238 210 217 211 219 216 208 210 193 200 190 189 188 189 191 180 175 191 195 186 183 195 202
230 225 229 242 235 229 234 236 240 239 236 240 248 247 242 295 273 260 220 249 220 222 205 200 207 222 227 207 199 191 197 191 184 187 180 189 186 183 188 190 190 194 191 192
232 234 234 230 225 227 240 235 239 243 253 253 261 251 286 285 251 255 241 236 221 205 202 201 205 211 215 217 204 197 193 190 188 189 192 185 187 185 192 191 187 197 196 201
254 252 248 238 249 229 232 236 245 263 252 255 258 298 276 263 244 237 242 229 229 202 200 197 194 200 199 201 181 189 190 191 185 192 197 185 190 189 190 184 198 196 193 193
250 253 257 254 248 241 243 268 265 256 263 262 330 276 265 253 230 221 245 232 223 201 200 196 192 191 198 199 202 203 189 196 187 190 189 188 196 195 181 193 192 198 182 194
242 251 256 254 257 257 259 259 254 263 263 279 278 265 254 242 231 217 220 239 219 209 199 206 199 197 187 193 192 196 190 199 195 193 193 193 200 185 190 194 195 187 184 192
251 248 246 242 245 245 256 256 261 258 263 299 267 254 241 233 226 221 210 216 207 212 223 212 204 193 199 195 192 200 192 197 197 191 189 192 193 188 197 194 195 192 209 204
264 258 254 252 252 251 254 256 253 257 283 276 259 244 238 230 214 223 216 209 207 211 208 206 209 217 207 196 195 194 193 201 194 202 198 194 191 190 192 192 190 202 196 192
284 281 275 266 257 250 256 252 257 269 293 271 249 251 230 228 220 213 219 229 207 207 208 210 207 209 207 205 203 211 206 202 202 187 184 190 195 200 192 197 199 200 189 198
278 278 274 277 267 255 264 272 273 290 284 263 247 244 232 220 220 219 211 211 227 225 217 202 202 214 205 206 212 216 203 206 213 205 201 197 195 200 201 192 201 193 195 202
278 278 274 276 274 267 271 277 267 286 278 259 240 227 233 224 219 223 217 213 209 221 223 230 209 201 207 202 206 194 194 202 211 202 202 207 194 204 211 209 197 203 210 208
282 285 284 282 284 276 287 248 284 279 274 257 234 228 222 231 225 216 224 222 213 214 214 226 231 230 240 231 242 221 205 208 206 201 202 201 203 202 201 195 202 202 202 203
253 253 263 265 247 251 243 271 282 288 271 256 236 230 223 223 224 228 230 225 226 222 215 213 212 213 207 211 213 212 208 226 211 201 203 202 193 201 202 208 207 208 217 215
252 253 250 249 254 271 254 273 281 295 265 266 250 234 230 223 232 229 223 232 236 234 223 216 214 211 212 213 212 206 210 215 212 215 219 219 216 210 208 217 207 202 211 203
260 259 260 260 257 269 283 259 273 282 266 260 257 247 233 229 223 229 237 223 234 236 233 222 218 215 213 212 209 211 205 202 201 202 211 214 216 222 214 214 214 220 209 227

GFSCGP_2pvu_pres_099.txt.gz
Presure
202 205 202 186 195 195 189 178 188 183 188 195 200 201 202 206 183 194 199 198 196 199 193 203 181 197 200 194 203 221 168 261 229 213 199 178 190 209 215 213 235 237 275 224
169 217 194 200 207 206 192 190 186 195 193 196 175 195 199 195 215 206 198 201 208 200 193 198 208 219 228 220 207 228 231 259 227 212 197 192 188 211 211 207 239 217 303 218
223 208 159 197 198 209 194 195 201 201 189 194 201 195 190 206 201 202 199 198 201 193 195 210 217 194 235 222 201 257 233 332 227 213 193 180 197 196 214 205 214 239 287 215
227 221 215 211 210 207 210 201 205 195 201 194 192 197 195 176 195 205 207 201 200 125 200 203 234 232 231 224 237 242 333 276 223 162 191 186 199 193 206 206 219 237 298 289
229 230 223 226 209 200 211 206 199 202 196 204 195 191 195 189 206 203 211 202 201 223 221 219 241 224 222 239 265 260 323 234 218 203 190 190 200 200 212 213 206 212 234 272
236 228 221 223 224 215 204 216 212 205 205 206 203 200 164 103 110 179 207 209 211 226 227 181 215 231 235 251 249 330 257 217 215 200 192 177 194 197 194 206 202 213 222 232
267 228 231 229 226 228 226 217 226 221 217 211 212 203 197 123 132 206 230 219 227 227 174 237 231 242 262 246 283 287 231 221 214 203 193 180 190 194 190 202 210 203 207 231
261 266 259 258 249 242 234 227 231 228 224 228 235 225 195 213 210 241 94 130 244 152 152 235 246 272 268 309 315 240 227 198 213 204 185 188 189 193 187 200 197 211 208 204
251 258 257 253 253 251 246 241 243 241 224 220 219 219 238 235 232 125 230 219 256 244 243 196 187 327 292 313 256 238 229 219 213 202 192 183 191 193 201 193 195 200 208 210
238 248 253 247 240 240 238 241 240 244 244 237 240 235 228 228 235 211 259 237 244 254 256 267 301 298 206 273 250 203 228 222 212 202 192 190 183 192 192 194 200 190 192 201
230 229 228 247 246 241 234 232 233 233 233 230 234 232 228 250 255 253 249 240 250 264 301 280 291 278 267 241 214 231 216 213 207 199 190 192 183 194 187 191 182 201 188 193
227 227 231 231 245 242 240 241 238 244 242 249 252 251 252 256 251 250 243 231 148 292 273 263 269 276 250 196 235 204 214 206 189 197 184 191 183 190 190 183 182 192 204 194
236 232 232 233 217 217 236 240 231 233 238 249 248 239 247 243 241 247 238 256 289 260 261 253 268 265 201 219 217 202 220 198 204 191 192 188 185 191 195 190 189 180 191 192
241 231 227 231 231 234 231 230 230 233 238 239 248 231 228 234 239 243 156 297 258 245 229 248 256 247 223 214 218 213 210 205 194 189 191 193 184 189 188 185 172 194 193 187
234 236 234 229 228 229 232 231 225 230 244 233 239 233 239 252 244 253 284 260 241 250 237 220 243 215 214 202 207 214 203 200 190 192 189 188 197 185 193 186 194 189 184 186
251 239 238 234 233 231 232 234 235 234 228 233 232 235 252 244 252 255 275 244 241 227 220 220 222 231 213 208 202 193 207 196 197 206 183 198 198 194 193 186 193 171 183 191
263 258 245 241 238 236 239 242 236 239 247 260 251 254 255 254 280 295 266 251 234 231 228 212 213 211 207 204 205 193 191 187 180 189 188 202 193 194 196 183 188 181 189 184
265 261 258 256 253 255 255 256 256 256 262 250 260 254 264 272 275 268 256 243 231 219 226 224 209 208 202 200 200 200 206 198 200 193 191 200 198 196 197 190 187 194 186 195
260 263 258 253 252 253 247 251 257 255 260 258 256 256 250 263 255 250 249 232 225 227 210 220 209 204 202 198 200 192 190 187 209 185 190 190 194 188 191 192 199 192 190 198
279 267 255 253 258 254 246 247 251 250 254 256 261 250 298 251 245 238 228 233 221 213 230 209 216 219 209 205 203 200 199 192 191 189 207 193 201 192 189 191 193 198 196 195
271 278 277 270 258 254 252 251 249 246 257 258 256 272 251 243 237 233 221 220 231 220 211 222 214 205 213 213 201 198 198 200 201 199 203 204 197 194 192 193 199 200 184 193
270 281 279 278 270 268 268 264 263 267 264 259 261 304 244 242 234 240 219 218 237 221 214 222 209 212 221 221 204 211 208 208 192 202 200 200 198 199 212 198 204 204 203 206
263 263 270 278 278 278 280 278 271 263 266 266 274 298 245 236 233 225 219 214 215 227 238 213 214 211 205 205 207 209 215 208 219 202 194 196 173 200 206 202 190 188 203 197
258 260 263 261 264 273 278 278 272 270 270 276 277 297 246 241 239 226 225 212 214 209 221 241 225 204 214 207 205 203 208 210 208 204 205 207 209 200 181 203 212 218 203 202
259 259 264 276 274 272 280 279 278 274 278 280 246 296 256 238 244 235 223 225 220 214 218 216 221 237 226 212 204 206 206 210 211 209 213 219 203 215 221 216 220 212 203 206
255 255 258 260 267 266 292 291 293 295 293 240 258 291 262 246 235 246 236 231 226 226 223 223 226 222 221 226 229 234 227 223 214 212 208 201 211 236 217 198 207 216 211 207

GFSCGP_2pvu_pres_102.txt.gz
Presure
260 252 205 208 191 161 187 188 191 155 196 154 186 207 185 181 179 188 188 196 186 204 209 198 198 211 210 196 196 193 203 229 207 234 225 229 247 214 211 201 191 205 248 214
316 301 245 203 212 190 187 203 195 195 194 186 194 182 187 189 184 180 198 190 199 184 184 184 195 195 202 197 200 194 213 178 226 207 227 228 242 206 201 198 204 222 226 230
294 298 255 241 235 208 191 202 197 198 196 203 187 185 188 184 184 183 184 182 183 200 198 197 194 159 206 203 205 204 211 176 240 236 232 224 238 205 199 193 200 199 221 236
285 288 294 240 241 218 214 210 205 193 197 199 187 185 204 190 191 191 216 187 189 188 198 208 189 197 194 206 203 208 237 214 239 227 228 240 230 206 200 181 197 197 221 231
278 280 277 281 218 220 227 220 196 203 198 203 192 198 196 206 204 188 195 190 189 188 140 186 175 198 201 213 218 214 239 245 235 159 234 307 221 208 200 182 196 218 214 222
273 276 273 274 257 230 218 215 208 205 208 205 201 194 193 107 117 203 201 201 171 176 195 174 196 199 207 209 208 223 250 241 211 251 291 242 216 203 198 187 172 208 206 214
263 268 267 269 263 234 225 215 209 211 209 194 187 201 199 206 201 200 200 202 201 200 198 175 199 212 216 213 189 236 256 245 238 238 308 228 211 199 191 191 177 200 214 206
257 258 260 260 247 243 227 227 222 218 216 213 209 205 211 197 192 97 99 89 201 207 111 110 175 155 214 239 240 261 248 234 266 298 243 215 210 199 193 192 190 198 193 219
251 255 259 256 257 232 232 227 228 224 222 218 213 212 215 216 201 202 210 208 198 140 221 224 226 136 176 227 252 258 243 265 312 193 232 215 210 181 202 192 186 195 186 206
247 249 253 254 253 252 235 229 231 226 220 218 219 221 219 219 227 221 219 224 225 139 218 212 222 239 203 277 265 257 261 310 295 246 222 213 209 184 195 194 182 193 193 192
245 247 246 250 250 251 259 253 250 246 228 221 242 244 245 247 251 249 245 243 239 238 137 234 258 270 272 271 242 272 261 292 264 226 217 204 210 185 194 191 186 187 196 190
242 238 235 237 246 245 250 252 248 247 245 243 241 242 243 244 241 239 233 235 231 214 261 266 263 259 135 288 314 303 299 269 240 194 210 191 206 193 186 192 191 182 199 186
244 241 236 241 236 241 247 248 241 238 237 234 236 238 231 232 238 239 239 250 250 254 259 260 261 290 291 308 293 291 216 225 233 201 210 198 199 198 183 189 191 184 186 188
240 238 236 231 231 227 225 233 238 234 231 232 237 236 241 245 245 251 248 246 249 252 249 247 270 278 269 277 271 260 250 211 215 221 199 201 186 193 193 184 189 182 191 192
237 235 233 233 233 226 227 224 223 237 237 236 239 237 225 241 241 245 235 238 245 257 295 270 256 253 261 271 260 253 234 240 213 203 192 198 190 183 185 184 183 183 186 189
243 234 235 234 229 228 232 231 230 223 220 228 227 227 224 233 241 235 229 237 245 243 249 255 242 248 250 268 241 218 217 208 210 208 195 194 201 194 185 180 187 185 185 184
258 249 242 238 231 231 236 231 231 236 237 234 231 223 225 228 229 233 235 254 198 247 261 210 209 232 246 251 258 219 213 216 202 210 203 196 191 185 190 192 184 187 191 191
260 260 247 246 237 242 241 232 230 229 228 229 231 234 228 243 239 225 262 256 275 236 218 202 226 252 233 238 253 216 209 211 211 197 191 196 192 183 189 193 193 198 208 183
266 256 252 244 243 238 235 235 235 234 235 236 237 239 252 243 261 260 269 275 278 235 221 209 189 227 235 227 232 200 205 198 193 195 193 193 194 190 194 187 190 190 200 175
278 274 263 254 249 247 246 245 244 243 243 247 252 257 256 251 253 262 257 287 253 247 220 214 206 206 221 221 226 196 203 198 195 205 197 199 199 198 194 201 196 196 190 185
266 277 277 269 265 262 257 254 253 250 255 258 261 257 256 245 247 250 279 258 249 240 238 223 218 216 220 214 210 213 211 203 199 197 194 190 213 187 193 191 177 194 194 193
270 267 261 256 256 261 263 259 257 254 252 259 252 252 246 245 249 283 264 246 241 241 228 229 228 224 224 219 214 210 206 208 201 191 188 192 190 189 199 189 195 197 181 202
254 269 266 268 271 270 265 262 259 257 261 260 252 246 250 254 243 277 243 245 235 245 235 231 224 216 226 226 221 221 205 205 206 204 189 196 193 194 193 198 194 199 197 201
263 255 254 255 259 271 275 277 276 273 269 265 264 257 252 265 243 275 239 249 235 232 244 233 224 215 224 216 218 213 223 214 195 203 202 205 203 199 197 189 190 182 181 200
271 265 262 261 264 276 279 278 279 278 279 279 280 276 269 255 244 274 243 242 242 234 228 241 226 221 221 219 213 225 220 206 205 218 193 193 192 191 194 199 197 206 202 208
267 261 256 257 258 257 260 270 279 282 279 280 275 270 269 255 255 281 240 239 243 238 234 226 240 230 231 218 222 201 214 220 210 225 219 222 223 221 205 206 213 218 219 230

GFSCGP_2pvu_pres_105.txt.gz
Presure
262 254 279 256 247 240 232 225 195 191 188 207 191 186 189 193 182 190 195 199 177 200 195 194 173 187 189 179 200 187 196 199 191 202 215 214 219 219 243 218 242 227 211 211
339 327 265 250 261 246 238 237 232 203 187 189 201 186 186 188 191 174 187 195 208 187 179 177 196 180 184 190 176 199 200 193 178 194 209 210 192 228 207 230 239 217 177 208
335 331 324 263 254 241 238 239 229 239 203 199 195 183 187 190 188 192 202 193 182 197 197 190 180 181 181 174 184 188 195 163 193 204 202 214 223 245 208 220 242 219 197 204
326 310 326 310 307 261 254 229 239 239 231 182 201 181 205 190 190 184 188 188 177 185 182 181 181 181 194 178 192 182 182 194 194 205 204 212 212 231 238 218 243 211 206 200
329 296 323 307 289 302 305 240 242 244 221 226 186 189 176 188 196 195 194 189 187 189 192 184 182 182 186 190 187 187 197 196 197 200 205 212 219 240 230 228 240 205 203 201
323 295 311 299 283 293 295 301 266 230 231 229 228 207 200 191 194 196 195 193 189 188 190 194 198 202 188 130 201 199 196 201 201 207 206 214 232 236 230 288 223 203 193 195
331 294 301 282 272 280 280 273 279 267 253 227 232 222 197 205 188 196 192 201 198 194 188 183 184 188 156 200 200 202 198 202 199 210 215 219 237 251 237 293 216 203 193 186
325 285 298 271 261 271 270 258 249 264 256 224 225 222 210 203 208 203 192 201 204 203 109 191 191 195 126 190 201 207 206 212 217 214 227 243 250 252 253 255 211 202 195 183
315 271 277 262 270 269 265 265 262 264 260 216 219 220 211 208 214 198 194 205 203 189 121 194 127 192 117 205 212 215 218 216 235 254 241 243 263 235 286 232 210 198 197 184
283 281 263 261 258 257 257 248 246 253 262 234 215 221 215 213 209 204 202 210 203 197 208 125 206 206 204 172 173 227 184 240 229 250 249 253 247 250 278 219 206 197 195 191
292 269 253 252 253 256 251 252 250 247 242 240 238 221 216 214 211 204 201 206 191 205 163 208 211 211 216 231 227 173 238 225 250 143 270 253 252 314 244 215 203 203 195 189
272 248 249 247 247 251 249 249 245 245 237 241 241 238 223 220 223 223 219 212 215 214 212 218 224 139 240 252 254 229 214 125 245 258 255 176 301 261 236 213 198 197 196 183
252 242 241 240 245 244 244 245 247 245 241 237 225 221 224 229 228 223 219 218 218 225 253 245 242 243 246 248 232 263 282 272 265 271 299 289 274 235 225 191 193 195 189 183
248 237 235 236 236 237 237 239 240 242 246 247 245 248 251 245 249 254 250 244 238 234 234 234 236 243 261 276 279 265 278 307 315 283 279 272 234 208 210 208 190 196 194 182
248 239 237 235 237 237 233 233 236 237 242 242 242 238 237 240 240 239 233 231 234 245 249 253 260 269 269 258 282 280 291 292 276 272 261 241 212 192 206 192 192 188 194 184
247 235 235 235 235 232 225 230 229 235 237 236 233 227 231 230 231 232 235 236 236 246 251 254 267 281 268 274 255 264 267 276 264 265 243 227 204 194 203 192 193 182 182 177
247 240 235 233 236 236 235 233 227 229 230 234 233 231 229 230 233 233 232 229 234 251 240 282 288 235 224 239 248 251 252 257 254 247 230 203 202 203 202 190 185 183 183 183
251 241 243 238 238 240 234 233 229 229 226 227 223 225 232 232 232 233 222 236 233 237 240 238 249 209 211 218 243 255 243 248 237 225 227 206 212 202 201 191 193 191 187 184
254 247 237 239 240 235 230 226 231 236 226 229 231 232 229 209 235 229 219 227 244 229 232 239 260 217 197 210 218 226 245 228 213 215 226 203 206 199 194 194 190 188 194 193
263 259 248 242 239 236 235 231 231 226 222 227 234 221 222 226 219 223 231 233 247 293 243 224 223 214 205 200 203 245 236 232 217 210 204 218 206 183 200 198 192 191 180 182
255 265 265 252 242 239 239 235 234 232 232 231 232 231 230 230 230 233 236 257 281 293 246 231 223 224 223 201 215 232 241 231 240 216 205 205 200 209 191 188 195 199 195 198
263 271 275 263 260 254 252 246 241 237 238 233 233 232 231 234 239 243 249 259 272 284 245 227 236 214 209 206 217 224 217 221 229 203 227 189 203 203 202 195 187 186 195 187
261 289 283 278 273 266 256 250 250 248 245 244 244 245 249 253 250 251 260 254 263 256 250 226 234 218 227 210 223 217 198 211 245 205 186 208 208 194 200 197 205 195 190 193
282 260 254 262 263 266 271 272 269 266 264 264 264 260 255 254 256 253 247 246 253 262 289 239 224 233 220 216 210 201 208 226 211 236 213 203 204 189 193 196 185 185 202 203
289 267 279 270 266 268 264 263 261 260 259 260 260 259 260 259 255 262 245 242 247 255 281 274 245 224 225 224 217 218 215 206 203 205 213 224 218 210 207 204 189 196 200 203
279 279 280 258 250 257 269 269 270 272 276 275 272 270 269 269 270 267 249 240 243 251 273 268 271 242 236 226 223 223 214 216 219 210 223 214 217 218 212 216 210 203 205 192

GFSCGP_2pvu_pres_108.txt.gz
Presure
366 339 359 69 136 247 275 257 248 243 235 219 218 219 202 184 207 203 198 209 189 189 183 190 189 201 195 187 189 172 198 182 152 172 184 192 186 200 180 193 206 208 203 240
399 421 310 336 344 315 263 261 259 250 242 234 225 218 221 189 197 182 185 179 198 194 192 190 170 191 188 187 190 186 172 176 180 184 173 184 181 195 193 203 212 203 225 239
400 448 371 325 336 338 312 275 236 258 248 239 233 227 217 207 188 187 186 180 184 194 195 182 191 176 205 170 174 188 179 176 187 184 172 194 178 199 198 197 216 219 229 225
406 405 398 341 326 336 331 278 270 233 251 241 245 239 231 203 202 182 205 188 191 193 193 197 181 197 188 189 184 191 182 178 177 182 155 188 175 190 162 202 208 213 233 232
398 408 388 353 322 319 332 320 272 253 258 234 246 242 228 228 222 196 197 177 192 180 191 192 191 187 182 184 189 181 178 162 180 182 189 190 201 199 198 203 215 216 232 235
379 367 351 332 333 312 311 314 314 292 249 246 240 245 232 222 223 223 198 186 180 193 184 190 182 182 187 174 181 195 192 194 194 146 193 148 200 193 202 203 211 229 207 228
369 369 363 314 317 315 311 310 304 304 311 253 246 229 222 227 226 224 225 192 183 183 191 142 191 189 192 189 188 190 183 189 185 190 201 204 202 205 214 223 217 233 214 220
354 326 347 308 307 285 282 297 285 292 310 303 291 227 223 221 213 229 233 231 219 187 200 186 192 192 194 191 194 182 133 195 193 151 203 207 209 215 208 213 246 226 256 261
316 304 335 302 305 283 289 291 277 287 287 295 273 270 232 228 226 222 224 223 218 198 179 201 198 83 146 194 195 184 126 193 195 142 153 212 204 211 219 241 229 240 238 266
305 315 281 303 286 281 273 268 268 267 247 267 260 245 229 232 242 219 220 216 216 224 209 197 195 188 192 142 198 136 191 192 203 205 206 220 223 224 235 229 246 248 224 252
291 287 323 291 274 268 258 261 264 255 241 236 259 239 235 222 221 227 228 226 227 225 216 198 198 201 131 193 193 200 204 127 190 200 227 191 205 241 243 240 245 250 241 240
284 297 284 256 267 257 257 259 251 247 239 235 224 245 236 230 234 238 249 232 223 218 218 203 201 204 200 203 204 207 130 206 129 130 211 239 251 241 179 212 260 242 267 229
310 299 259 264 256 250 259 252 249 236 243 233 231 223 232 243 240 249 248 239 223 221 210 212 208 206 202 203 205 211 222 227 226 240 191 246 247 246 268 258 231 263 262 223
277 264 255 249 243 245 246 244 239 233 230 226 224 227 237 241 247 241 240 241 232 220 219 214 212 218 221 221 210 223 229 248 252 255 256 267 287 265 259 234 293 264 237 217
263 252 245 245 239 239 239 239 242 240 240 239 235 233 227 230 232 234 232 232 232 231 230 225 222 248 243 245 249 252 253 257 267 281 170 263 265 245 265 277 248 236 227 214
257 250 245 232 237 238 234 240 242 236 233 227 233 233 231 231 231 226 226 238 241 250 244 242 237 244 245 257 275 278 264 130 252 250 278 238 273 263 276 242 234 227 222 211
250 245 239 232 233 236 232 235 233 231 231 231 235 237 239 240 248 239 231 234 236 233 232 231 234 249 256 263 250 246 271 274 264 279 281 265 259 265 240 227 222 212 218 203
250 244 238 234 233 235 228 237 236 233 229 230 231 234 237 240 235 229 229 229 226 226 228 235 214 248 250 251 231 219 253 235 257 197 263 255 259 240 227 224 215 211 204 199
253 244 240 238 236 234 233 233 236 230 226 229 231 237 234 233 229 221 224 226 227 231 233 226 228 250 224 217 226 213 213 240 246 244 248 256 238 233 218 216 212 180 204 199
251 249 243 241 232 236 234 233 235 230 226 231 230 228 235 230 228 227 225 227 234 234 235 223 228 259 232 220 221 221 209 211 228 240 236 240 240 220 221 206 210 213 184 201
245 252 245 238 238 236 231 230 233 231 231 231 230 223 222 220 219 220 226 225 212 220 244 231 223 246 232 213 223 231 216 205 222 213 239 224 204 213 212 201 204 200 208 200
261 254 253 251 241 236 235 234 234 233 234 230 224 224 229 228 220 223 230 229 229 231 226 223 233 215 234 214 218 209 224 199 223 203 233 232 218 243 191 210 208 194 202 200
263 259 267 259 254 242 238 236 237 227 230 232 228 227 228 223 222 224 232 233 234 235 236 248 266 274 236 227 225 228 211 216 215 206 212 235 213 210 221 197 188 212 205 199
276 270 267 263 272 255 248 243 236 231 230 231 228 231 232 230 232 236 233 231 232 234 240 258 270 230 224 236 226 219 213 213 225 226 220 222 236 212 203 198 183 210 207 206
275 280 284 275 272 270 267 264 259 249 245 243 241 240 240 241 241 238 240 240 241 249 252 257 267 291 227 235 225 228 219 205 214 214 209 196 220 207 194 196 195 201 197 191
280 274 273 274 273 269 276 270 266 229 269 265 262 260 258 257 256 257 259 263 265 263 259 255 244 270 241 234 223 213 231 224 213 210 211 224 202 224 226 210 203 205 199 215

GFSCGP_2pvu_pres_111.txt.gz
Presure
350 354 386 70 171 365 377 350 314 266 260 262 254 251 241 222 219 220 220 211 207 212 207 159 201 198 192 168 201 226 194 209 190 189 203 198 175 178 188 202 174 182 204 197
442 434 135 81 362 384 371 358 353 314 271 262 268 265 252 243 234 228 223 220 215 210 190 187 193 198 197 186 201 199 204 189 192 183 192 184 174 179 179 186 175 192 198 195
426 409 382 375 368 392 377 358 347 348 323 269 254 266 254 243 245 236 230 211 210 209 208 190 194 188 199 194 201 195 203 200 191 188 189 191 183 177 165 179 182 187 185 177
444 412 392 382 382 389 400 379 326 333 338 313 259 250 256 245 237 239 224 211 211 217 194 195 187 196 196 191 172 193 205 197 197 200 198 200 190 181 187 180 181 186 190 199
406 398 380 381 396 392 413 352 306 314 335 336 270 250 269 249 240 241 226 223 224 218 212 189 189 188 177 186 191 190 188 196 199 183 181 183 181 185 183 187 198 152 194 207
384 376 386 389 392 385 373 329 306 315 323 330 304 266 251 268 247 233 231 227 218 214 203 203 190 181 179 181 180 189 194 192 166 179 149 192 184 196 190 190 174 202 207 212
384 368 367 378 372 371 337 334 311 324 331 331 312 294 245 260 243 241 238 235 219 217 210 206 136 204 181 176 189 196 78 171 183 176 188 179 187 185 182 176 195 197 202 213
375 363 349 357 355 354 334 334 310 304 315 301 297 308 246 252 240 232 249 237 229 221 220 220 200 201 193 197 191 183 180 191 189 183 181 188 150 125 203 209 193 200 214 202
325 333 330 318 367 324 320 315 287 288 287 291 299 301 308 245 237 244 244 237 235 226 219 215 215 220 173 201 174 205 192 189 177 185 181 190 198 184 214 153 204 193 200 203
316 305 311 341 307 296 294 291 303 293 291 287 290 291 282 295 246 226 229 242 234 231 224 218 218 217 208 203 116 183 205 201 160 166 193 168 204 207 220 192 194 216 218 224
282 294 313 292 282 293 280 273 292 276 266 262 260 258 257 240 248 263 249 246 224 234 220 225 222 216 224 223 219 208 190 158 198 207 183 215 215 187 193 202 215 210 198 232
282 299 297 301 287 274 279 278 269 252 250 246 245 256 244 237 221 231 233 252 235 274 226 227 246 224 228 229 225 206 195 196 196 191 149 194 221 211 192 171 204 186 233 238
282 285 309 278 269 272 269 265 257 241 242 228 233 234 225 239 225 223 229 230 232 247 259 245 243 232 222 217 218 218 223 208 196 201 143 199 127 196 171 212 223 215 225 236
277 307 282 259 265 259 249 253 250 237 237 229 221 244 220 234 230 224 226 231 230 230 233 235 236 238 221 217 218 222 219 209 204 209 212 207 207 209 201 208 201 207 232 230
283 263 254 254 255 246 239 238 239 241 229 231 234 225 226 244 233 236 233 240 237 232 238 240 248 253 251 222 221 223 216 207 218 213 215 223 227 240 249 245 233 247 242 257
262 249 252 251 245 239 243 242 250 243 238 235 231 227 233 230 242 240 243 234 241 241 238 235 231 236 236 233 229 227 226 219 216 230 249 250 247 233 211 245 238 248 260 248
256 252 248 245 242 237 242 247 241 244 244 235 238 226 223 226 228 219 225 226 232 230 227 224 229 230 229 232 243 244 242 245 250 257 271 268 260 262 255 234 229 221 226 232
251 250 245 243 236 240 241 239 238 233 232 230 227 227 225 223 226 229 228 225 228 230 226 227 229 243 235 233 235 238 247 250 255 246 263 271 267 273 286 241 236 230 225 249
247 247 242 241 241 241 237 239 239 238 239 242 240 237 234 230 220 222 223 223 227 227 240 233 235 229 225 226 235 240 244 250 229 251 238 246 270 281 257 240 237 225 250 240
253 248 242 243 242 243 242 240 234 233 235 233 232 232 225 222 224 228 232 234 242 235 231 225 225 223 226 230 231 236 247 219 221 226 233 235 253 264 249 238 237 247 235 239
246 246 238 237 248 243 239 234 232 237 233 232 233 233 230 229 230 231 232 237 235 231 223 224 226 225 229 239 226 249 214 232 225 206 215 225 228 240 244 237 234 231 224 222
248 248 245 241 237 240 240 233 233 238 232 233 235 234 230 229 226 229 226 233 230 226 226 223 222 231 239 239 218 247 214 216 226 224 215 208 228 237 233 233 228 218 212 216
272 246 251 247 234 231 238 234 236 231 231 230 237 234 230 228 230 229 225 224 225 225 227 222 227 228 224 237 213 249 209 210 224 232 215 215 216 205 227 232 211 205 211 191
267 258 251 251 253 244 241 235 234 235 230 225 224 225 228 232 234 231 230 223 224 225 223 223 227 234 237 235 222 216 225 212 215 226 226 226 224 209 207 212 221 205 194 215
276 273 260 259 255 250 254 248 244 236 236 234 233 233 231 230 234 236 232 226 226 230 221 220 226 231 238 240 251 221 251 223 218 220 230 232 221 224 218 236 214 200 199 211
279 280 274 271 270 271 259 258 257 252 246 239 234 234 234 234 236 236 233 232 231 231 232 232 234 238 242 249 244 234 262 254 223 224 217 229 222 224 220 225 237 214 213 200

GFSCGP_2pvu_pres_114.txt.gz
Presure
227 197 235 261 255 303 391 376 362 362 343 324 329 331 327 292 178 121 257 237 223 162 134 152 212 211 197 193 195 198 200 188 161 207 197 187 223 200 194 187 176 191 171 183
246 242 183 334 358 423 415 74 402 380 356 337 320 338 323 303 231 287 265 256 234 227 219 218 162 144 228 210 199 195 188 201 201 198 213 188 210 206 193 197 188 182 184 163
303 443 465 297 424 339 409 406 403 387 384 357 342 351 317 303 272 284 258 258 240 229 223 204 219 177 161 204 195 197 195 187 185 189 201 200 180 185 176 175 189 191 192 183
450 414 406 359 416 395 388 379 382 373 348 357 358 303 322 301 257 279 255 246 242 234 232 217 210 205 199 197 196 191 197 184 178 205 193 184 192 189 188 158 180 182 181 184
379 385 376 112 410 382 376 365 354 356 375 347 341 345 324 297 263 260 259 246 239 243 230 222 216 210 209 201 202 184 195 191 197 203 191 208 213 210 200 199 183 193 189 181
406 406 400 400 398 372 363 372 382 413 366 351 331 340 318 301 277 257 256 253 241 242 241 237 229 220 202 197 200 187 183 193 187 173 182 180 187 189 205 195 193 194 189 187
358 337 385 396 389 371 383 386 399 392 371 337 326 325 314 317 289 271 245 248 244 238 232 237 226 224 209 198 191 193 184 180 195 184 182 175 176 179 168 159 169 174 187 182
374 367 366 362 357 373 376 393 367 357 350 317 310 300 308 307 254 308 244 235 261 243 231 223 228 225 219 206 205 205 198 179 179 192 191 175 183 182 185 148 179 180 176 186
331 331 327 354 366 364 366 342 345 331 310 289 293 295 304 297 243 240 245 271 240 240 228 230 232 226 226 215 204 203 194 207 185 167 169 167 182 197 204 192 190 187 192 197
316 323 318 329 339 340 324 327 312 295 298 288 289 289 277 269 292 241 240 265 251 246 245 240 227 226 225 218 205 200 203 200 200 188 167 173 181 193 185 173 189 111 189 199
310 312 306 311 305 310 313 293 281 294 298 282 275 284 291 283 297 270 276 266 248 254 242 237 230 227 226 216 211 206 204 203 195 201 200 152 168 183 193 192 175 205 205 126
309 292 320 287 278 293 287 299 290 278 263 251 258 250 250 256 251 261 240 264 291 245 213 223 237 229 223 224 224 220 214 214 211 94 199 204 187 177 222 120 131 126 193 211
308 293 289 280 271 273 283 268 268 257 248 250 245 241 242 251 236 243 222 245 246 255 238 234 236 227 221 221 224 224 225 221 215 218 214 219 195 203 194 201 203 164 188 195
306 303 279 280 273 282 267 257 258 243 242 250 229 231 227 228 239 224 226 232 242 238 241 244 245 261 231 229 227 230 224 224 222 220 230 234 226 179 189 207 202 207 203 166
300 271 270 269 269 261 252 254 246 234 238 241 242 244 241 229 229 230 221 225 221 229 232 236 235 257 257 232 215 212 215 226 231 228 226 217 223 222 227 221 201 199 202 202
295 263 260 268 257 250 246 241 242 233 236 247 238 250 232 234 238 228 237 232 225 210 234 231 234 226 230 234 238 239 246 252 239 233 224 222 224 224 224 222 211 220 206 235
273 259 256 261 251 253 242 240 236 232 236 239 239 249 235 231 232 233 235 236 237 234 224 225 223 227 231 223 225 226 227 242 251 243 228 224 231 231 221 223 222 226 235 233
265 256 256 261 246 245 245 240 233 248 238 234 233 225 240 244 227 218 222 224 223 223 223 225 227 237 246 245 246 248 238 234 235 236 232 227 234 238 244 253 262 270 266 254
269 253 257 258 249 249 256 250 243 231 239 236 227 234 232 231 233 231 227 220 238 237 234 235 236 243 237 232 233 226 226 230 228 229 229 235 249 263 262 260 244 233 232 236
267 245 254 258 257 247 249 236 244 240 230 236 230 225 222 228 229 233 227 227 223 224 224 235 226 227 226 228 234 238 232 227 226 233 242 249 237 237 247 232 272 195 231 237
247 257 243 251 251 254 249 241 248 244 235 239 244 241 233 232 235 233 232 233 228 230 231 230 227 225 228 249 227 232 223 224 225 229 242 229 234 234 235 238 229 275 220 217
262 252 252 244 248 250 254 241 242 239 236 235 235 232 231 228 224 224 225 227 230 231 228 225 227 234 235 236 232 228 222 225 225 231 227 230 227 230 229 226 248 253 219 213
258 251 251 249 260 244 242 247 238 232 238 235 237 237 239 240 241 241 239 237 234 226 225 229 235 237 240 231 232 228 227 226 227 224 224 236 213 211 214 241 239 241 221 223
265 259 249 252 251 250 250 247 236 239 239 237 233 235 236 235 234 235 236 236 235 234 234 236 232 239 234 230 233 229 223 232 238 239 222 233 213 228 224 222 229 212 220 212
278 264 261 248 251 244 248 244 233 246 240 238 238 232 233 240 235 235 238 238 239 236 233 233 232 230 228 228 230 233 229 227 217 239 226 234 215 215 217 228 206 229 229 230
275 274 272 258 261 255 254 247 247 245 236 234 235 223 237 236 204 203 228 232 242 233 234 237 237 236 231 227 227 229 230 229 233 216 220 242 223 216 224 214 222 217 228 223

GFSCGP_2pvu_pres_117.txt.gz
Presure
228 226 230 150 230 242 249 247 254 250 108 239 254 278 267 262 284 278 304 356 289 234 290 242 243 230 221 217 197 207 184 139 197 192 191 135 76 234 225 204 212 195 176 200
148 231 232 230 233 244 254 275 281 120 181 68 88 363 357 135 75 326 346 343 332 153 255 255 232 239 160 175 210 197 206 196 196 186 193 193 213 196 216 197 192 145 183 204
231 219 240 241 268 248 372 252 467 382 75 430 429 424 410 390 361 328 314 237 304 208 258 262 218 258 242 223 212 208 174 156 200 166 188 192 146 197 174 187 181 187 197 197
242 241 250 262 438 415 430 432 428 412 405 419 401 158 137 382 358 324 303 300 305 290 289 261 258 249 242 227 195 208 193 182 200 201 194 193 205 194 192 191 174 178 191 183
239 266 408 434 402 438 413 388 376 394 394 392 388 408 385 365 343 326 309 293 293 291 277 261 274 245 234 221 215 199 207 193 203 198 197 200 177 191 159 206 199 184 191 187
274 424 424 424 412 408 403 107 379 367 369 377 362 367 346 366 341 343 312 291 291 291 282 259 268 240 241 229 212 205 207 206 195 201 198 199 188 203 191 183 191 192 197 195
415 397 312 286 399 280 387 374 366 364 359 338 353 342 349 335 329 311 337 294 288 267 264 275 259 241 237 230 216 204 209 202 186 184 182 186 190 189 201 201 184 169 209 189
355 370 376 362 172 391 389 401 382 360 375 345 367 378 320 320 310 329 318 294 286 277 245 275 256 239 235 225 214 210 206 205 206 197 182 182 177 173 178 187 185 175 170 168
350 338 341 348 335 351 374 364 354 349 357 355 347 325 304 319 289 269 288 270 271 273 227 253 255 243 238 230 222 215 210 207 209 195 198 185 186 175 184 179 188 200 173 177
338 327 337 343 336 341 350 348 337 323 334 316 305 317 298 298 250 238 256 261 252 264 242 249 245 241 227 234 227 219 215 210 210 205 194 187 185 185 182 188 180 162 185 175
323 335 329 312 332 313 313 308 299 298 281 288 276 283 306 264 260 235 250 244 249 268 249 195 230 244 237 234 232 227 223 217 216 194 197 196 192 184 181 181 177 187 162 169
323 328 289 304 308 303 293 284 284 302 292 292 302 288 301 266 253 240 251 240 244 268 277 248 255 264 240 235 232 217 221 219 217 208 194 195 92 195 199 191 185 175 151 169
309 300 282 298 290 284 273 296 276 273 279 278 274 280 289 251 246 232 230 230 228 251 249 263 289 225 234 245 226 222 224 223 221 222 209 201 195 103 194 193 116 139 197 147
311 287 282 290 269 293 283 268 263 262 267 261 262 252 267 273 240 233 238 236 243 246 261 243 263 228 251 240 235 229 232 224 218 224 220 208 204 202 201 206 204 191 206 190
300 281 287 272 276 254 263 264 261 267 255 260 253 253 254 260 260 255 256 247 235 233 237 246 253 261 237 243 238 235 228 224 224 226 222 220 215 216 214 212 214 209 208 193
275 275 260 273 266 254 239 247 253 254 262 243 247 248 239 251 249 255 243 226 229 231 244 239 234 233 244 247 243 243 224 235 232 225 226 232 234 237 231 231 231 231 223 226
305 274 257 270 245 254 240 248 243 244 255 249 244 243 236 240 236 239 236 218 228 224 225 228 229 231 237 244 242 246 231 229 230 222 218 231 236 233 223 222 229 220 228 214
290 267 256 270 243 249 245 249 229 244 255 253 237 239 233 239 233 240 233 236 223 224 217 229 225 225 226 227 232 242 240 241 243 245 225 224 203 256 240 231 248 252 236 231
283 267 255 270 252 251 253 242 237 236 234 249 252 236 228 251 229 235 244 222 231 226 225 227 223 217 222 226 231 221 228 227 227 228 230 233 227 245 244 236 229 232 232 217
245 273 265 261 254 250 251 241 243 251 222 238 242 241 236 243 256 249 233 235 218 223 233 234 223 223 233 240 218 227 238 245 236 237 242 239 238 235 232 232 237 239 244 268
257 270 264 262 256 245 252 252 232 253 243 236 236 245 233 238 247 245 224 222 231 234 231 224 233 227 226 223 228 244 237 231 231 228 224 224 225 230 229 229 235 252 260 221
261 272 259 261 260 250 259 239 247 245 248 235 241 239 226 240 233 230 233 236 231 225 221 224 229 228 237 235 237 226 240 232 225 246 223 225 223 226 227 232 240 236 241 250
278 272 268 266 252 252 248 242 249 242 245 236 230 241 238 236 229 228 232 228 232 232 234 234 228 227 231 230 233 241 233 227 229 256 234 224 222 226 227 231 227 219 235 223
275 262 268 269 256 253 252 251 244 240 249 232 242 235 233 237 236 236 234 234 237 233 233 234 235 240 238 233 241 236 229 231 238 251 228 234 225 224 220 225 234 219 231 210
291 265 260 264 260 260 249 251 255 251 248 243 236 240 242 241 239 236 243 238 236 239 233 235 235 235 237 243 240 230 231 236 237 242 233 232 236 227 226 228 230 219 232 224
285 290 268 256 264 252 258 253 252 245 250 253 249 244 243 237 233 233 237 242 241 240 239 240 240 239 239 240 240 237 236 236 236 236 245 238 236 234 224 231 240 226 221 235

GFSCGP_2pvu_pres_120.txt.gz
Presure
227 173 227 225 233 196 249 238 248 243 85 157 253 84 251 114 225 227 82 90 104 232 228 212 139 242 126 139 271 214 139 226 219 197 194 193 203 200 195 172 201 199 198 225
228 231 232 219 239 230 241 195 245 242 244 254 258 271 266 205 77 85 237 192 235 213 151 221 206 232 263 212 208 226 225 235 154 205 203 173 201 200 196 192 183 195 199 231
228 229 253 236 257 256 236 249 239 243 308 386 458 513 490 487 147 228 71 282 261 241 238 150 238 250 254 284 222 254 257 235 223 214 208 198 198 202 203 155 196 197 162 215
251 256 236 241 226 243 292 302 438 429 438 66 365 190 70 365 430 441 379 422 415 377 294 284 277 297 310 360 203 251 248 231 217 218 205 201 192 202 169 186 189 167 184 195
236 239 246 258 255 293 461 134 440 422 433 97 258 158 399 407 419 413 424 407 385 374 364 350 346 340 355 354 301 248 239 222 212 215 209 202 196 201 197 194 192 194 191 189
238 243 267 290 408 402 418 417 433 421 399 379 382 376 161 334 366 367 385 273 364 346 336 333 330 333 323 300 256 252 218 225 219 214 194 202 196 190 191 204 194 193 179 170
243 246 266 372 387 398 403 394 393 391 385 364 356 358 326 316 332 340 355 365 347 330 322 312 309 312 315 217 251 242 227 241 220 212 206 209 202 195 195 198 204 204 188 170
235 263 365 342 371 363 401 391 392 368 355 368 339 322 320 335 337 340 304 344 318 318 306 299 296 288 270 254 259 279 230 232 207 213 204 196 201 198 192 198 194 200 195 195
257 346 354 366 354 188 388 397 116 279 365 326 311 298 319 298 296 304 307 300 328 303 297 297 289 281 276 292 248 247 232 221 220 200 207 202 196 200 192 200 184 185 187 188
349 353 353 352 341 278 365 357 84 358 332 311 318 291 303 275 287 278 261 267 282 297 310 284 283 280 261 266 235 259 239 224 220 215 204 202 201 199 192 186 186 191 180 179
345 328 340 316 343 321 330 346 348 332 311 310 296 299 288 279 272 260 261 256 261 281 261 280 270 281 258 251 232 261 243 232 225 224 209 203 201 196 197 191 177 184 181 178
335 307 339 302 313 302 316 307 297 294 300 292 278 280 274 264 263 251 256 251 243 261 303 274 248 259 268 227 259 249 236 230 235 231 218 211 202 201 195 195 192 200 195 184
325 310 297 295 300 277 281 290 278 283 258 273 280 288 264 261 262 255 258 255 243 235 247 238 267 252 210 233 248 252 237 228 229 226 221 209 209 203 201 200 200 195 192 187
318 301 294 266 290 278 281 275 279 281 275 262 278 280 256 241 243 246 255 235 244 236 237 260 257 252 259 223 245 252 238 230 223 227 222 217 209 207 203 203 204 116 196 193
310 293 286 269 266 267 263 275 273 268 268 277 274 262 256 250 239 246 242 235 247 235 234 233 247 232 229 253 231 228 235 236 226 220 223 223 218 211 210 209 209 205 196 196
303 293 290 267 280 255 253 277 268 267 266 261 270 272 251 235 243 244 241 234 242 230 225 224 226 236 237 248 251 224 231 242 256 232 228 228 224 226 224 216 214 208 207 207
306 290 268 264 264 256 250 258 267 260 257 257 260 265 247 229 233 232 232 236 222 223 227 232 251 245 244 244 236 235 238 243 233 243 241 225 223 209 219 222 222 221 219 213
303 276 259 258 254 245 251 246 261 252 262 256 248 259 265 244 233 237 228 230 224 220 244 239 225 236 227 231 236 237 240 234 232 229 235 247 248 232 231 231 224 223 226 226
300 290 259 261 245 252 240 242 244 237 261 252 255 252 256 251 242 234 234 229 232 245 232 229 245 236 236 225 228 223 232 232 232 246 229 244 235 238 221 236 235 236 234 226
296 278 271 246 247 240 256 242 242 234 261 265 235 243 249 249 252 246 226 237 244 247 222 231 236 212 227 229 231 222 229 234 232 233 235 236 238 240 232 217 246 243 239 232
310 267 289 251 256 236 246 252 246 239 218 252 260 242 254 244 233 241 240 240 238 238 230 237 224 232 232 229 227 222 227 225 225 227 230 233 227 227 226 232 228 247 226 243
304 282 279 280 249 248 234 248 244 251 247 248 251 256 253 241 249 237 232 234 249 222 231 237 220 234 218 230 235 225 226 227 232 232 243 214 234 246 242 230 232 235 237 239
302 286 268 280 259 257 248 239 249 238 245 250 233 250 246 238 251 243 243 240 225 256 232 233 239 240 235 235 224 225 235 245 220 232 222 243 248 234 234 228 233 219 227 223
308 287 278 271 279 262 258 245 247 252 240 250 240 249 232 242 239 240 236 237 235 244 250 236 232 231 235 235 235 246 228 231 232 232 237 226 228 247 231 229 225 234 216 226
308 299 294 273 267 271 267 252 255 247 250 238 243 243 247 233 243 237 234 245 240 236 237 245 244 248 243 243 250 239 239 238 241 241 247 242 226 242 238 231 246 246 230 226
310 300 291 297 272 267 265 272 260 249 245 248 252 238 241 242 242 243 234 241 240 240 239 239 240 240 242 244 243 242 240 240 237 239 239 239 243 246 242 236 237 258 242 234

GFSCGP_2pvu_pres_123.txt.gz
Presure
185 173 196 227 207 172 220 245 237 214 234 238 247 166 96 224 237 248 232 245 232 230 211 171 114 228 238 104 155 230 156 227 120 127 243 172 207 223 218 171 188 201 193 208
178 224 220 193 208 225 233 240 238 235 245 206 278 281 68 278 218 281 70 234 234 233 234 226 191 222 257 238 239 244 250 189 250 127 167 130 130 208 204 210 205 196 146 204
228 236 223 224 230 235 246 209 253 271 255 262 272 324 327 103 330 104 282 203 91 89 97 247 232 226 89 84 241 241 102 173 190 158 227 213 137 220 205 202 195 168 180 199
235 237 174 229 251 252 257 262 279 283 279 302 464 89 526 458 468 164 84 348 330 76 131 266 192 249 233 80 77 203 251 180 218 200 197 226 231 216 196 213 200 195 194 206
225 176 228 249 253 251 266 283 279 395 457 475 430 177 82 180 365 78 104 427 432 451 487 483 293 250 260 253 267 256 245 221 214 194 232 238 275 192 215 216 199 201 188 195
237 228 240 241 238 251 292 396 422 432 431 408 289 375 67 60 68 85 166 388 397 418 438 437 430 404 261 257 260 206 249 242 225 209 240 263 232 245 222 216 207 201 199 198
235 248 241 241 250 281 374 400 439 440 419 364 345 328 222 113 323 316 322 332 373 389 398 384 398 386 379 346 285 263 229 260 248 260 259 287 220 247 216 217 200 200 194 166
246 245 239 236 266 329 364 396 429 370 341 330 321 304 326 308 292 297 293 320 348 349 360 354 360 355 358 352 348 301 284 273 271 285 288 239 225 240 227 220 213 197 202 159
233 247 237 266 303 356 368 381 402 339 320 312 318 320 295 288 297 295 289 297 301 329 334 334 324 321 321 322 318 323 321 315 329 286 225 247 229 236 221 220 205 204 194 191
248 223 254 257 344 348 304 383 362 333 326 312 312 116 300 272 276 269 274 267 278 294 314 309 315 314 303 300 294 288 289 304 291 256 243 235 226 224 219 204 214 206 201 195
225 245 261 344 344 340 316 366 349 318 323 321 320 251 283 280 272 256 263 268 256 266 272 287 301 298 291 295 286 290 269 282 249 241 250 220 216 224 225 201 206 196 195 196
233 249 326 332 323 289 323 364 346 321 327 312 296 268 266 267 278 265 269 255 266 266 255 245 270 263 276 289 288 298 259 276 251 231 230 239 218 208 231 199 197 192 194 195
247 259 341 330 310 294 285 315 288 296 309 291 301 277 262 276 258 254 254 256 235 265 225 254 242 248 233 254 273 274 257 244 252 257 234 214 229 223 204 204 197 196 194 197
252 361 332 319 293 262 283 271 284 280 279 290 281 271 264 253 261 246 260 237 253 266 242 242 253 237 239 252 270 265 259 268 231 233 239 240 232 237 221 208 199 199 197 194
260 346 324 312 277 267 255 287 266 273 276 282 264 262 262 247 264 246 243 241 239 246 259 255 250 245 232 247 258 193 263 263 228 240 257 257 242 229 227 219 214 205 200 192
310 343 319 290 259 268 248 254 269 268 270 264 270 253 253 253 254 235 237 246 240 250 235 231 234 227 239 247 242 247 249 242 226 245 250 246 242 233 227 226 224 215 204 204
306 342 318 288 263 256 253 255 265 251 260 267 270 263 250 250 243 227 232 251 234 215 235 236 228 238 253 250 232 239 245 226 248 233 243 249 239 230 188 226 225 224 215 205
301 330 321 275 269 260 250 257 246 254 256 260 268 273 239 243 244 243 227 236 233 233 233 234 237 233 223 229 236 235 232 239 248 256 253 238 246 242 233 226 224 226 224 220
294 359 313 274 264 261 256 247 261 250 250 249 256 259 259 231 237 244 233 224 235 241 232 229 225 225 223 218 241 244 243 248 240 257 257 252 244 236 240 244 228 225 224 224
295 331 313 278 260 264 257 243 254 240 252 253 242 249 254 232 230 236 246 214 242 232 235 230 226 227 222 229 238 238 238 239 238 235 244 250 247 243 236 234 239 245 241 233
292 341 322 290 261 253 262 241 236 256 249 257 263 238 257 246 255 250 234 235 226 218 240 228 225 225 237 231 228 231 236 225 225 232 233 234 235 234 234 236 235 236 235 237
304 339 323 300 275 259 262 254 238 234 243 249 251 235 246 243 246 259 247 230 237 232 227 233 227 239 221 230 234 234 239 226 229 229 232 231 232 229 229 235 233 230 230 234
307 352 323 308 286 266 256 254 253 240 233 241 243 252 235 253 235 250 252 241 237 237 237 229 221 238 246 233 222 227 221 216 237 235 222 225 218 234 233 236 232 229 228 239
347 350 324 309 301 281 265 258 246 247 237 233 235 243 247 243 249 243 248 232 247 267 239 248 226 236 229 227 228 222 240 240 239 226 224 226 241 242 229 236 246 225 242 230
338 330 321 306 302 284 279 268 257 250 248 246 243 237 241 246 242 255 247 249 261 233 247 234 232 242 238 238 232 236 234 241 238 238 238 237 240 240 233 227 232 239 239 227
331 315 327 309 296 291 284 271 273 255 255 254 246 246 240 236 234 243 233 237 241 246 229 233 243 247 237 245 250 255 254 255 260 249 242 256 249 247 256 243 234 242 247 244

GFSCGP_2pvu_pres_129.txt.gz
Presure
197 201 192 202 211 205 204 184 187 196 119 211 212 216 117 157 200 261 191 183 119 200 204 195 211 201 69 202 208 234 218 221 217 224 216 185 198 202 201 171 112 201 176 212
183 190 163 181 180 193 196 196 196 195 142 178 221 225 265 194 258 271 277 234 251 274 274 255 235 233 184 215 119 113 234 229 195 222 215 222 205 103 205 205 213 199 217 121
196 199 207 203 194 190 200 195 179 221 222 217 271 234 148 254 281 265 256 293 297 303 307 280 272 272 246 185 229 231 132 211 229 198 233 225 217 213 222 219 162 170 154 134
199 204 184 200 198 199 212 207 222 208 214 224 254 250 214 279 290 288 297 407 430 433 446 457 437 302 299 296 232 239 245 233 217 108 226 119 234 98 141 189 131 133 239 200
175 208 211 179 201 196 217 203 198 218 250 247 249 270 286 177 224 421 357 355 164 349 362 382 396 433 443 331 89 260 243 154 79 230 231 194 198 202 90 189 186 233 202 101
199 198 196 210 180 219 179 208 210 227 232 261 265 272 205 390 388 336 328 278 281 331 317 329 384 421 414 241 474 313 185 143 192 247 115 224 167 190 183 232 186 174 196 219
181 203 204 212 181 206 199 209 220 243 256 273 268 214 396 365 336 316 324 308 127 71 320 76 168 198 88 86 340 505 150 197 245 164 184 243 183 169 204 217 135 319 182 188
219 199 211 200 207 192 205 220 250 235 263 268 268 378 338 357 287 305 291 299 295 291 291 310 81 90 144 434 452 484 509 177 269 277 260 269 192 177 166 174 173 148 157 181
225 217 190 204 211 198 260 258 249 257 260 270 320 354 337 319 305 270 259 268 292 254 264 301 116 125 96 377 414 383 385 459 290 258 272 242 196 219 141 177 180 177 171 205
211 210 217 220 202 229 257 242 251 249 263 269 350 334 318 280 283 264 287 217 273 177 284 245 286 314 333 334 371 360 356 341 410 282 143 156 190 222 214 189 173 172 187 187
225 230 238 203 208 251 241 245 242 258 257 361 345 318 331 283 267 252 297 203 277 271 264 274 262 283 287 283 333 329 321 324 321 319 272 264 241 191 205 186 186 181 192 178
230 228 212 208 253 238 247 245 255 276 350 331 329 305 329 280 247 274 253 279 249 255 263 250 268 278 283 282 299 320 305 304 319 308 317 260 256 246 188 188 225 237 217 242
228 235 219 251 240 243 240 244 254 260 354 305 299 307 286 268 249 263 269 260 262 253 241 262 247 257 259 266 285 292 307 301 291 297 290 277 277 252 199 244 214 211 221 227
232 228 244 243 239 236 239 253 265 311 312 285 312 305 269 240 256 263 245 271 257 250 257 251 226 252 252 253 250 273 282 292 297 279 272 272 265 270 277 290 236 181 185 180
244 238 239 230 227 232 251 254 323 305 296 279 278 293 239 252 269 250 242 269 242 250 235 239 213 245 215 249 239 243 253 256 279 286 256 251 273 274 280 277 264 280 261 271
239 231 228 222 220 238 243 247 300 288 280 272 259 272 244 234 242 243 247 256 243 257 225 254 242 246 234 231 237 240 242 250 250 229 236 241 240 241 260 255 248 246 235 252
228 224 223 215 221 234 254 346 287 277 278 269 273 277 255 252 247 237 253 249 250 258 230 241 240 246 239 236 230 221 222 241 249 235 233 232 225 234 237 238 239 238 251 239
220 222 218 213 223 240 242 324 286 273 270 263 256 246 264 262 254 243 251 231 252 230 258 237 237 228 234 239 226 228 237 226 231 239 230 227 230 226 232 238 245 244 249 241
219 222 216 224 221 242 288 316 295 280 265 276 261 252 252 265 274 252 254 237 251 227 218 239 232 230 225 237 228 224 217 220 220 239 238 246 232 239 237 229 253 232 256 230
221 216 226 234 241 239 294 317 295 276 268 257 259 257 249 252 249 266 249 236 250 234 232 241 235 236 230 241 236 226 232 232 236 234 226 244 243 248 254 255 240 232 246 199
217 221 232 232 237 255 291 281 300 282 269 259 255 254 245 254 247 260 256 257 245 239 242 229 238 234 230 223 229 225 221 221 224 228 234 244 230 225 247 235 237 260 242 237
214 226 225 239 236 262 288 283 315 276 285 260 253 250 250 249 244 251 241 263 258 249 230 233 232 224 227 237 228 225 226 226 227 224 225 225 225 236 230 232 242 251 246 253
218 229 235 233 251 297 284 283 313 297 274 266 265 253 248 251 250 222 230 237 245 259 255 251 223 229 234 223 218 212 216 213 214 219 226 229 228 229 235 225 227 239 237 236
226 228 245 237 263 287 286 354 332 302 285 268 256 258 251 248 252 253 239 242 234 232 249 236 254 253 225 223 207 227 221 223 237 228 224 238 221 217 223 235 220 234 241 238
237 241 241 258 292 295 289 354 333 302 289 273 263 254 252 249 250 251 258 236 233 233 235 231 225 235 240 235 240 244 229 224 231 239 228 229 232 237 242 237 241 235 235 239
237 234 251 286 289 298 360 357 324 314 286 278 268 263 250 248 246 246 249 249 254 249 223 229 241 254 224 231 242 230 232 243 238 212 227 223 221 218 220 226 222 242 241 242

GFSCGP_2pvu_pres_132.txt.gz
Presure
203 197 180 196 186 179 179 178 175 186 179 179 186 186 187 189 149 198 192 206 212 234 228 231 235 224 208 230 181 195 216 223 216 194 196 212 241 148 173 210 194 197 227 205
203 190 186 171 193 186 190 198 198 194 201 146 206 207 207 211 214 205 205 228 251 248 244 272 262 271 282 246 225 242 246 216 215 211 211 220 232 206 168 183 195 208 180 204
208 223 193 208 193 184 198 202 200 184 195 199 199 189 189 205 234 236 239 264 259 206 293 299 313 318 318 313 284 200 247 257 169 248 237 234 240 151 173 231 171 203 212 191
236 214 238 205 189 184 150 214 196 185 193 211 207 206 198 232 206 229 236 292 285 281 300 398 402 371 383 432 429 329 248 154 253 258 248 246 230 251 176 209 203 197 170 171
238 225 208 234 220 202 208 207 192 180 178 194 184 193 212 184 172 274 273 283 279 143 372 340 348 350 360 364 390 411 426 307 266 256 261 252 137 231 104 179 87 155 168 168
178 195 202 234 196 225 191 193 206 206 207 208 226 249 135 214 262 272 279 305 362 342 330 301 299 303 312 372 392 398 334 436 314 283 224 81 231 209 175 163 155 160 143 188
231 170 192 202 185 230 218 207 199 203 191 188 227 202 220 229 236 272 383 346 330 312 286 302 281 273 331 224 368 422 452 222 254 170 216 80 255 97 128 153 216 164 155 171
233 231 217 206 212 192 201 215 208 236 200 239 209 214 261 263 273 332 351 301 312 287 288 277 125 305 291 334 88 397 427 469 394 90 159 295 268 93 242 189 183 180 161 212
227 185 218 221 219 203 232 210 236 229 246 238 203 254 269 268 273 317 314 305 285 284 292 258 280 261 328 296 88 374 93 366 422 481 493 214 293 298 190 195 187 196 178 170
229 179 213 225 222 225 191 234 225 199 237 205 244 263 263 266 345 342 296 282 269 280 272 274 258 281 293 299 221 93 180 243 349 395 548 306 277 284 198 195 178 156 186 195
226 231 196 220 226 145 220 188 217 233 244 248 257 260 266 353 339 306 277 272 261 262 288 254 224 236 289 294 318 309 288 289 290 323 385 474 276 269 158 200 177 207 192 176
230 214 141 228 227 183 220 229 236 241 250 253 254 260 315 336 324 288 279 263 267 278 233 266 257 260 252 286 303 297 305 275 260 280 300 336 270 254 251 233 183 206 188 188
183 236 229 211 181 230 233 237 238 242 253 244 259 254 328 301 308 287 264 250 263 256 252 257 249 257 243 261 268 266 280 262 265 274 313 312 377 266 230 218 185 179 194 226
254 239 234 234 228 241 235 236 248 246 239 248 252 325 328 326 295 277 255 247 218 254 241 232 255 248 236 258 236 270 293 267 302 289 301 308 295 337 263 192 190 200 186 180
239 241 238 228 240 231 238 243 238 232 238 245 274 310 301 317 284 278 222 256 238 269 231 229 247 222 257 234 250 243 269 260 281 297 288 297 286 283 298 196 236 231 193 217
239 235 237 237 231 237 237 232 232 228 235 252 316 296 297 301 272 229 248 224 239 258 229 237 244 247 247 246 230 244 248 255 274 259 261 269 281 272 289 240 193 201 195 182
232 234 221 236 229 224 226 229 225 227 230 277 302 286 272 285 265 264 253 237 244 251 263 237 240 250 241 238 236 250 254 256 257 267 259 244 247 247 264 270 278 259 197 188
225 234 231 221 226 220 224 226 220 239 247 308 294 266 275 269 273 254 235 236 240 238 263 244 249 233 248 229 238 246 231 254 231 237 239 238 239 255 255 251 253 254 251 227
225 219 223 222 219 223 219 219 221 238 244 306 287 266 266 263 253 259 268 240 246 229 236 246 240 227 239 224 236 236 227 227 243 234 227 229 228 237 234 239 237 242 250 248
220 222 219 205 221 220 220 217 229 243 249 315 282 266 263 264 259 253 258 255 267 242 231 233 248 230 235 228 219 228 221 225 219 236 236 239 240 227 224 232 239 234 230 243
222 211 213 215 224 224 217 225 233 236 287 301 290 271 261 258 253 262 244 250 253 266 237 241 218 217 219 232 230 216 226 235 232 219 218 234 217 227 235 241 236 230 233 237
205 220 206 218 222 214 222 227 244 234 300 285 292 280 263 260 253 254 255 244 249 253 259 235 244 221 215 224 229 230 226 220 225 228 229 227 232 222 231 233 227 230 249 246
220 211 219 220 222 223 221 241 243 277 295 288 312 297 270 260 249 247 244 245 241 236 227 248 261 241 225 227 239 215 224 232 214 233 222 224 227 228 227 228 224 237 245 243
218 214 220 227 225 225 238 237 272 294 296 287 324 283 280 275 260 250 248 249 245 238 245 239 234 244 252 257 221 223 207 216 220 240 225 224 223 222 220 226 233 237 237 239
215 212 221 226 235 241 243 262 295 299 328 351 336 302 275 264 267 258 255 250 248 247 256 228 235 236 238 232 241 247 260 226 222 225 206 220 225 213 235 223 236 234 234 226
214 217 208 227 233 245 254 279 297 329 366 353 329 300 285 269 259 255 251 253 259 258 251 241 253 262 247 231 244 255 243 247 246 251 227 230 234 225 230 226 229 239 242 249

GFSCGP_2pvu_pres_138.txt.gz
Presure
183 198 172 193 206 189 212 180 169 220 211 198 205 198 198 191 177 178 188 196 176 191 192 191 191 193 200 203 203 200 204 211 220 224 193 225 236 125 112 241 206 215 173 149
201 211 199 197 193 195 196 177 203 177 191 231 220 223 198 190 199 185 149 192 196 198 199 202 200 197 194 211 211 183 185 205 113 230 200 225 229 226 224 216 233 167 228 170
202 215 208 179 206 203 194 191 206 194 179 168 226 218 220 212 150 207 204 203 202 196 205 208 216 218 220 218 225 142 205 215 200 256 247 262 154 244 246 235 241 247 171 125
203 206 201 222 210 208 177 196 202 169 169 201 210 227 192 205 212 252 250 218 225 211 203 217 220 215 211 187 255 129 241 347 253 250 254 219 248 253 252 230 115 251 243 151
199 207 205 190 192 210 168 205 204 211 211 214 194 213 253 238 201 241 243 252 232 235 259 258 235 236 258 228 239 273 250 84 338 339 247 369 391 400 313 313 308 284 284 194
221 212 214 213 212 212 182 207 207 198 209 210 223 218 257 248 235 235 212 205 240 217 235 245 215 251 263 378 346 168 279 308 313 301 319 360 368 322 408 361 310 281 287 205
225 219 184 221 220 208 213 213 216 211 215 210 217 217 229 245 245 240 243 248 237 206 148 233 299 239 363 323 315 321 300 310 337 314 307 303 399 402 368 417 381 232 199 293
229 227 218 208 223 211 211 212 212 215 214 243 178 241 246 247 249 244 244 248 258 262 270 285 224 356 312 302 292 268 294 329 292 313 291 328 408 407 314 82 386 318 215 268
248 238 224 220 211 218 230 242 247 250 250 234 241 238 234 238 232 242 237 264 257 255 271 214 274 317 308 280 271 271 342 255 277 280 214 349 166 81 93 423 337 436 82 98
245 243 232 229 249 250 243 241 255 254 239 243 249 241 233 229 239 246 257 248 251 262 272 257 328 295 284 182 270 257 294 128 205 157 223 323 350 466 448 162 105 99 311 294
242 249 246 245 247 271 268 265 258 249 246 244 237 220 237 216 216 239 208 223 257 267 248 313 313 287 258 268 254 266 288 266 263 255 281 297 302 327 398 445 371 357 247 308
308 312 296 292 292 280 267 259 253 256 247 241 239 232 248 184 238 238 243 248 263 251 348 313 290 296 269 258 247 240 242 274 255 277 292 296 297 321 324 382 470 371 159 197
316 317 312 297 291 284 274 261 257 245 243 242 243 242 234 239 234 243 249 254 251 268 321 296 276 266 249 256 225 238 291 270 252 271 262 275 270 277 278 285 448 433 300 208
303 328 320 322 244 294 272 260 248 244 210 238 189 228 231 235 241 244 242 246 243 326 301 283 258 255 263 256 254 239 243 258 260 265 260 253 265 251 264 264 338 385 293 211
316 319 315 272 262 254 251 176 243 239 234 226 231 232 241 234 241 233 237 235 281 318 289 277 243 260 233 237 243 240 240 271 249 246 262 260 268 268 254 261 283 391 260 210
295 266 263 254 247 259 255 240 235 227 227 229 231 231 234 230 230 233 241 235 335 309 283 273 256 225 268 225 238 242 260 259 259 264 263 273 270 264 264 279 310 336 211 187
260 253 253 241 241 237 232 227 227 231 235 229 231 233 224 226 231 236 233 244 319 305 270 271 248 236 265 249 239 214 234 235 225 266 257 248 266 278 274 274 300 320 259 202
238 246 241 233 234 235 236 234 226 231 229 230 224 217 221 228 228 244 232 248 310 293 268 271 244 240 258 254 258 228 241 226 231 248 259 254 256 263 268 269 277 222 193 201
243 239 236 232 231 237 237 231 230 230 228 220 215 219 222 219 235 234 228 251 298 287 275 262 254 251 231 246 249 248 239 241 228 248 250 260 254 252 251 268 216 265 243 199
253 244 235 228 234 232 227 228 229 222 216 219 219 221 217 229 241 240 232 254 302 280 272 270 260 252 249 244 248 225 239 227 243 236 240 251 245 231 249 252 260 269 275 195
220 236 233 231 222 225 234 226 217 214 221 216 220 221 228 230 234 237 244 277 292 285 271 268 254 251 265 240 237 243 237 239 229 230 241 236 239 250 241 242 249 251 265 204
237 234 225 223 227 224 219 218 217 218 218 222 215 217 219 230 231 241 264 300 288 282 275 267 263 258 252 257 245 236 229 246 231 213 232 228 232 231 237 244 246 243 252 253
230 223 230 226 218 218 218 216 218 216 212 212 225 211 234 231 250 254 303 299 289 277 277 274 264 256 252 242 252 256 237 224 243 233 219 238 230 225 238 236 233 219 247 247
239 226 227 223 217 218 218 219 222 204 216 225 214 229 230 245 267 307 291 295 284 280 290 277 267 263 250 250 240 254 247 244 228 231 242 221 230 232 232 236 232 237 249 242
226 223 223 223 218 219 221 215 214 223 213 217 227 214 246 299 370 382 373 342 281 274 276 290 270 265 261 254 257 243 247 249 243 235 238 234 237 226 234 237 242 239 239 241
227 225 224 223 222 222 216 220 223 224 232 224 238 255 316 308 363 359 361 331 327 278 271 286 280 268 256 250 251 243 247 242 250 251 249 249 237 240 242 243 241 245 244 240

GFSCGP_2pvu_pres_141.txt.gz
Presure
191 200 200 187 179 194 186 189 181 196 171 216 190 169 185 192 172 206 192 201 209 196 196 204 203 203 203 205 203 204 203 200 206 204 206 214 211 218 211 209 212 144 214 203
149 169 205 172 180 207 186 194 195 213 171 169 213 187 190 178 166 169 197 225 214 213 210 212 210 203 205 210 214 206 210 213 191 214 122 220 222 139 205 223 178 215 209 206
178 188 184 192 187 190 204 195 192 199 211 194 209 224 207 186 198 203 183 181 220 230 218 257 222 216 209 217 219 166 220 223 222 222 230 229 227 206 184 236 217 227 233 250
198 171 177 197 185 186 186 206 198 205 218 214 204 208 199 190 223 186 183 178 180 223 235 234 222 231 262 242 183 276 266 257 264 265 257 233 221 249 87 228 238 242 230 238
205 193 207 201 203 199 208 197 199 222 214 224 224 217 225 169 172 212 229 222 222 227 236 254 263 261 260 273 266 219 230 234 229 236 350 266 269 339 347 359 373 219 164 231
170 160 209 210 200 195 208 214 199 198 224 209 211 195 216 203 197 215 219 222 224 228 247 262 262 264 179 263 287 301 293 334 334 326 271 325 312 342 353 335 357 389 369 353
212 214 217 219 215 230 223 223 217 207 223 201 224 225 198 206 206 217 221 251 240 244 251 264 258 258 260 275 290 281 280 323 309 307 300 243 208 309 309 324 331 239 380 416
227 221 216 232 233 237 238 226 229 230 235 230 233 232 213 213 210 241 250 248 245 244 254 256 251 277 108 280 270 267 317 303 289 280 307 296 291 302 323 333 367 360 384 122
233 229 234 231 234 240 237 234 239 249 257 249 242 235 216 231 250 250 249 244 250 258 257 253 270 267 270 271 263 314 296 287 279 277 297 291 294 254 273 403 428 425 239 332
251 240 240 239 251 248 248 244 250 251 248 236 252 239 237 245 253 248 243 244 253 257 264 255 249 262 264 259 252 289 284 272 268 291 288 263 183 91 290 285 427 83 374 277
252 255 251 248 261 249 238 243 251 243 250 243 245 243 256 253 248 243 251 248 249 252 246 255 251 151 255 321 297 275 275 258 252 250 272 266 275 293 261 313 414 399 458 416
256 259 319 298 289 288 281 272 271 268 266 265 265 262 253 244 242 247 245 243 250 239 247 175 254 247 318 296 295 266 268 261 242 253 267 249 258 250 304 306 316 304 415 404
310 316 309 299 295 292 291 283 280 278 282 282 281 265 250 248 242 247 245 243 239 243 245 251 246 336 296 276 273 267 250 239 261 237 273 265 239 267 291 284 284 282 318 349
308 323 334 321 317 316 315 315 298 295 280 274 266 253 251 239 248 235 239 232 217 241 245 246 244 309 285 270 262 248 245 247 245 249 269 257 261 270 277 270 267 273 276 439
309 312 314 304 303 331 336 319 308 308 280 266 249 243 251 220 229 232 234 238 237 237 239 244 291 298 285 268 242 260 250 235 248 259 266 273 257 279 251 268 276 270 287 306
307 302 278 310 298 292 288 277 268 260 252 244 237 238 233 233 144 227 231 227 230 230 243 235 297 294 273 261 247 249 250 227 244 242 252 263 264 278 267 259 270 271 279 300
278 263 299 268 268 260 254 251 249 246 240 195 195 228 232 234 223 231 234 224 232 230 238 232 294 290 275 261 250 244 252 226 240 238 234 236 267 264 267 261 281 279 301 314
295 291 265 256 253 247 246 241 240 236 226 230 228 228 225 228 229 225 214 230 221 236 245 236 275 288 276 257 249 237 259 251 238 216 240 240 243 263 257 263 265 256 278 289
285 266 257 241 253 247 237 239 229 228 224 219 226 227 225 222 219 221 229 227 226 234 237 243 252 296 272 265 243 253 253 264 249 228 246 234 238 252 261 264 258 257 266 284
277 261 252 237 240 231 240 243 239 235 232 222 230 224 218 220 218 230 214 219 223 234 236 255 270 296 281 265 258 244 249 247 249 245 241 237 240 243 253 252 249 259 271 262
254 235 243 234 232 236 230 234 232 231 225 225 223 220 218 222 232 209 220 223 236 224 244 263 300 298 281 271 268 240 249 244 241 249 236 245 241 232 242 249 240 250 244 250
245 249 253 240 234 231 229 221 229 227 225 222 220 223 225 211 230 220 223 231 227 243 251 274 298 293 289 273 258 260 263 243 233 242 244 241 238 242 235 241 241 244 242 249
237 238 232 231 231 228 223 228 221 222 221 223 222 209 224 219 210 220 214 231 244 256 300 290 286 288 287 279 266 266 258 267 246 240 244 231 245 239 237 239 236 229 247 241
236 234 230 234 222 226 227 222 217 220 222 218 225 220 214 232 223 221 227 259 310 299 313 306 282 285 283 278 275 259 263 251 258 258 248 246 236 249 239 244 237 239 240 237
237 229 225 230 227 227 225 219 219 214 220 221 232 227 227 229 245 264 312 294 378 370 364 339 303 281 276 274 273 276 261 257 256 253 253 262 243 247 243 248 243 244 249 243
246 234 226 227 220 223 222 221 223 221 223 226 226 225 239 251 265 304 341 355 368 353 337 329 329 292 273 268 265 278 265 265 256 247 246 256 252 249 255 241 246 250 254 254